GFSNE_700_spd_000.txt.gz
Wind_Speed
43 46 48 50 52 52 53 55 59 67 69 62 58 54 54 56 55 57 59 60 59 58 56 55 54 51 51 48 43 43 44 43 49 50 47 47 49 55
46 48 50 52 53 53 53 54 54 57 64 58 56 57 56 57 56 58 61 60 57 56 52 50 49 48 42 45 43 42 48 50 46 47 45 45 47 45
49 51 51 53 54 53 52 53 54 55 59 56 55 54 56 58 59 60 60 60 59 56 54 50 48 45 47 47 49 49 47 46 45 44 44 43 46 50
51 53 53 54 52 51 52 54 55 55 56 58 54 55 56 57 60 61 59 58 58 54 49 44 43 40 42 43 42 41 35 39 40 43 39 39 39 43
53 53 53 53 54 55 55 56 56 54 53 53 57 55 56 57 58 57 58 57 52 45 43 40 36 36 34 31 30 37 43 46 46 44 42 45 43 42
52 52 53 56 57 58 57 56 54 52 51 50 52 54 49 54 55 60 56 48 45 42 39 34 37 35 34 35 36 37 39 40 40 38 33 31 32 32
52 54 56 59 58 56 54 53 50 48 47 48 48 49 51 54 57 53 50 47 43 42 43 40 43 39 36 34 34 34 36 36 34 33 36 37 37 37
56 58 58 57 56 54 51 47 42 39 40 42 44 53 57 57 47 45 45 46 49 41 46 44 44 41 37 34 33 33 35 37 38 42 43 43 41 39
58 59 57 55 52 50 47 44 39 36 37 44 54 56 52 46 43 43 43 46 48 46 43 43 35 36 30 28 27 28 30 31 33 37 40 42 44 46
57 55 52 50 48 47 43 37 39 42 46 51 51 48 42 39 39 42 45 45 44 40 38 44 36 34 28 21 20 24 26 30 33 34 32 31 38 41
54 50 48 47 44 39 34 40 44 46 47 44 37 33 33 35 35 36 36 40 42 39 32 38 34 34 27 17 16 19 25 31 30 31 34 38 42 44
50 48 45 41 37 31 37 44 45 42 39 35 32 31 31 27 27 29 33 37 39 38 29 36 34 33 30 18 16 19 24 26 24 23 25 28 33 44
48 46 41 36 35 39 39 39 38 37 34 35 35 28 25 26 28 29 30 32 34 35 31 32 34 33 33 32 14 16 19 14 10 10 14 17 18 23
47 42 37 37 38 38 36 34 32 34 35 31 27 26 28 28 28 28 28 28 28 30 31 30 33 34 33 27 22 12 13 11 10 10 12 10 9 9
41 37 36 37 37 34 31 30 31 30 27 25 27 28 27 27 27 27 27 28 27 26 26 28 29 30 27 20 14 9 5 6 11 10 7 6 8 8
38 36 36 35 32 29 27 27 23 24 26 27 27 26 26 27 28 30 30 28 27 25 24 24 25 21 13 9 10 11 12 13 12 18 18 6 3 11
37 36 34 30 26 25 22 20 21 23 24 25 26 28 28 26 25 27 28 26 25 28 24 20 18 13 12 14 15 15 15 18 19 18 17 12 1 6
35 34 30 27 26 24 22 20 22 23 24 26 28 30 28 26 24 23 25 25 24 25 24 21 15 13 15 17 20 24 25 21 17 16 12 6 4 8
32 29 26 25 24 22 22 22 23 24 27 29 29 27 25 24 23 21 22 25 22 23 21 18 14 15 17 22 27 26 21 18 15 15 22 20 18 15
27 26 25 23 21 21 21 22 23 25 26 26 23 23 24 25 21 19 21 22 22 20 17 15 13 16 19 22 23 22 20 23 27 24 26 27 24 22
24 23 23 21 21 21 21 22 24 26 26 21 20 21 23 24 18 18 20 20 20 16 13 13 14 16 18 16 18 17 17 17 21 23 26 30 32 25
23 22 20 20 21 21 21 23 23 23 18 16 19 20 21 20 18 16 18 19 17 15 11 12 14 14 12 11 11 10 11 12 14 17 22 30 33 36
22 20 19 20 21 22 23 24 22 19 16 17 19 19 20 19 17 16 16 16 15 13 10 7 9 10 9 9 10 10 10 9 11 14 15 22 26 28

GFSNE_700_spd_003.txt.gz
Wind_Speed
43 44 47 50 53 55 55 56 60 70 73 69 67 62 60 59 58 59 59 58 58 58 58 59 61 62 64 65 66 64 53 52 56 50 47 51 52 56
46 48 51 54 56 55 55 55 57 60 69 65 64 64 63 63 60 60 59 59 57 56 56 57 59 61 61 60 57 52 46 48 49 49 50 53 51 48
49 53 55 57 57 56 57 57 59 61 66 65 64 63 63 64 64 62 60 58 56 55 56 57 57 53 47 40 40 43 41 49 49 50 52 55 51 46
54 56 56 57 58 58 58 60 63 63 63 65 65 63 62 60 60 60 58 56 57 58 56 52 45 40 39 40 39 36 35 33 35 39 42 44 42 45
55 56 58 59 59 60 63 64 64 63 60 58 59 57 56 54 56 57 55 55 57 55 47 44 39 39 39 39 39 37 36 40 44 46 43 48 48 46
55 57 58 59 61 63 64 63 60 57 54 52 52 52 49 51 53 58 58 57 53 47 43 39 41 42 43 44 44 43 43 43 46 47 49 48 46 44
57 57 57 60 61 60 58 56 54 52 49 46 48 49 52 53 57 60 58 52 45 40 45 41 42 39 37 37 37 39 42 43 43 43 42 40 37 36
56 57 59 59 58 55 53 51 47 41 41 41 46 51 56 59 56 48 45 45 48 39 42 40 37 37 34 33 32 33 33 37 41 42 43 44 42 43
56 58 59 56 54 54 50 46 43 43 42 46 53 55 51 44 43 44 44 44 42 40 42 42 35 34 30 28 24 25 28 31 34 39 43 45 47 50
56 57 55 52 51 48 43 43 42 43 44 44 43 40 39 39 40 40 41 43 43 39 39 43 36 35 30 24 20 22 25 29 32 35 38 41 43 44
56 53 50 50 45 41 42 45 44 40 37 34 32 33 33 32 34 39 40 42 41 36 32 39 35 36 33 23 16 19 25 29 32 39 41 40 40 43
54 50 47 42 39 39 42 42 40 37 35 34 31 26 28 30 31 32 35 39 40 39 34 40 39 40 41 27 23 21 24 24 31 33 29 26 27 30
50 47 43 40 40 40 38 36 35 36 35 31 29 29 28 28 28 29 31 35 39 39 35 37 39 38 39 38 14 17 20 21 22 17 19 23 25 27
46 43 40 40 40 38 34 33 33 32 29 30 29 28 28 28 28 29 30 31 32 35 33 33 37 35 33 26 17 8 11 15 18 18 22 21 21 24
42 40 39 39 37 32 30 31 30 28 28 28 28 29 30 31 30 28 27 31 30 28 29 29 29 24 21 20 19 18 16 12 17 18 14 13 15 12
41 39 38 37 32 30 29 26 25 26 28 29 30 31 31 28 25 26 27 30 29 25 23 24 21 18 16 19 21 20 21 26 23 22 19 17 12 9
39 37 36 31 28 26 22 22 23 23 24 27 30 30 26 25 24 24 26 28 28 28 23 17 15 17 18 20 23 26 28 26 25 28 23 18 9 8
36 36 32 29 28 24 23 20 21 23 27 28 26 25 25 27 25 22 25 25 26 23 20 16 13 13 15 21 26 29 31 31 27 26 21 13 8 4
34 31 29 28 24 23 22 22 23 25 27 25 21 24 26 27 24 21 22 22 22 19 17 14 13 13 17 19 20 23 27 30 29 28 28 19 15 2
29 28 26 23 22 22 21 23 23 25 24 18 21 24 25 26 23 19 21 22 21 17 13 10 9 12 16 18 20 22 25 27 30 30 28 21 16 12
25 23 22 22 21 21 22 23 24 24 20 19 21 23 25 25 21 19 18 19 19 15 10 6 6 9 12 11 14 19 23 27 29 30 33 28 22 22
23 21 21 21 22 23 22 22 21 18 15 18 22 24 23 23 20 17 17 17 16 14 8 5 5 7 7 9 14 19 21 22 25 26 31 36 33 24
21 20 21 22 23 23 21 20 18 16 18 22 23 22 21 19 17 16 16 16 15 12 9 5 4 4 5 9 12 15 18 20 22 22 26 27 27 27

GFSNE_700_spd_006.txt.gz
Wind_Speed
45 44 45 47 49 52 54 55 59 69 73 73 72 71 70 68 67 66 65 63 62 60 58 58 58 59 60 61 62 64 65 66 67 67 72 70 63 52
44 45 47 50 52 53 54 55 56 60 72 71 71 71 70 67 64 61 59 57 55 53 49 50 52 55 57 58 59 60 60 60 58 46 47 45 48 50
45 47 50 52 53 55 56 57 60 63 69 69 67 65 64 62 60 57 55 53 49 45 48 49 52 53 53 52 51 51 50 47 41 40 44 45 50 53
48 50 51 53 55 56 59 61 63 64 64 67 65 62 59 55 53 50 48 48 51 52 52 50 46 43 42 40 41 41 41 43 45 41 36 38 41 46
50 52 54 55 56 58 61 62 62 61 60 59 60 55 52 49 48 49 51 52 51 48 45 41 38 38 38 39 42 43 45 47 48 44 40 45 46 44
50 52 53 55 58 60 61 60 58 57 54 52 50 52 52 51 52 53 53 47 44 41 38 36 36 33 34 36 39 40 42 45 47 49 50 50 51 51
51 52 54 57 59 59 57 55 54 51 48 48 49 52 52 48 47 46 46 44 39 37 38 34 34 33 32 32 33 35 37 38 40 41 44 46 48 46
53 53 55 57 57 56 53 50 46 43 45 47 49 47 45 43 42 43 42 42 42 40 41 35 35 33 31 31 29 30 31 32 32 35 38 41 44 46
53 54 56 56 55 52 48 44 42 41 40 44 44 40 42 41 40 38 39 41 41 40 43 41 35 33 30 28 27 28 30 30 28 29 31 35 39 42
53 55 56 54 49 48 45 43 43 41 38 37 35 36 35 34 37 39 41 42 40 39 42 45 38 38 35 29 25 24 26 29 30 29 30 34 39 43
54 53 53 49 45 44 42 45 43 37 33 32 28 26 29 32 36 39 38 41 43 40 38 45 41 42 38 29 22 21 26 30 31 33 34 38 41 40
56 52 47 43 42 41 43 43 39 35 32 25 24 25 28 29 30 34 38 40 42 43 39 44 42 43 42 29 20 18 20 23 29 32 35 36 34 33
53 46 41 41 40 40 39 36 35 34 29 28 27 28 29 30 31 32 32 33 37 40 38 40 41 36 32 28 16 18 19 18 22 23 25 27 28 31
45 41 39 40 38 37 33 33 31 28 29 28 28 30 33 31 27 26 27 27 30 36 35 33 33 28 27 28 27 21 19 18 20 21 24 25 26 27
40 38 38 37 35 31 30 30 29 30 28 28 30 32 30 26 27 27 24 26 27 29 29 27 21 21 24 29 32 33 34 28 29 29 30 27 22 20
39 38 36 34 31 30 27 25 27 27 28 31 31 29 25 25 27 27 25 28 28 23 21 20 19 20 23 25 27 31 34 38 34 33 36 31 26 21
38 35 33 30 28 25 22 23 24 25 28 29 28 24 23 25 25 26 26 27 29 26 15 12 16 18 19 23 24 29 33 37 34 36 38 28 20 15
34 32 30 29 26 25 24 22 23 26 27 26 21 25 26 27 28 25 25 27 27 23 16 14 12 10 10 17 27 34 37 38 38 39 36 22 14 14
30 30 28 26 24 23 24 25 26 27 26 21 22 26 29 28 28 26 24 25 23 21 16 15 14 14 15 20 27 34 37 39 39 41 35 19 18 15
28 27 24 23 23 24 25 25 24 23 20 20 23 27 29 28 28 25 23 24 23 20 15 13 14 16 19 25 30 30 32 37 39 41 29 24 16 15
25 23 22 22 23 24 23 23 23 21 20 22 24 27 27 27 25 24 23 23 23 19 15 11 12 15 17 18 19 24 27 31 33 36 37 24 25 15
22 20 21 22 23 23 22 21 19 19 21 24 24 26 26 25 24 23 22 22 20 19 17 12 11 13 15 18 20 23 24 27 28 29 33 32 30 27
20 19 21 22 22 22 21 19 20 21 23 25 25 25 24 22 21 21 21 20 20 19 17 13 11 13 15 17 16 18 17 23 28 27 28 26 24 24

GFSNE_700_spd_009.txt.gz
Wind_Speed
42 43 43 43 44 47 49 51 55 63 65 65 65 65 65 66 65 65 63 61 59 56 55 53 51 52 54 57 60 62 63 64 65 66 65 65 63 62
44 43 43 45 46 48 50 52 53 56 66 62 64 64 65 64 62 58 54 50 48 46 46 46 46 47 50 53 55 57 58 57 55 55 55 51 53 60
43 44 45 46 47 49 50 51 53 55 63 65 63 61 60 58 54 50 48 47 46 43 41 40 40 42 42 43 44 47 49 50 45 42 40 39 39 38
43 44 45 47 48 49 50 51 54 55 59 64 61 57 55 52 48 45 43 42 41 37 36 36 36 37 38 38 39 39 38 38 39 41 40 43 40 44
45 46 47 49 50 50 51 53 55 57 57 58 57 52 51 47 45 44 43 40 39 37 34 33 34 35 35 36 38 40 41 44 46 47 49 50 48 44
45 47 49 50 50 52 54 55 56 56 53 50 49 50 48 45 43 43 43 37 35 33 32 33 32 33 33 34 36 38 39 41 42 43 45 47 50 53
46 48 50 50 51 53 55 54 53 51 48 45 48 48 43 42 42 42 39 35 34 37 33 31 32 35 33 33 34 34 35 35 36 38 40 41 42 45
49 49 50 50 52 53 52 50 47 44 42 45 48 43 41 41 39 36 39 39 35 34 41 36 36 36 36 34 34 35 35 34 36 35 34 34 36 38
49 50 52 53 53 52 48 44 43 39 38 42 41 37 39 35 37 37 36 39 39 38 41 42 38 38 37 34 31 32 33 35 36 35 31 28 27 29
50 51 53 53 50 47 44 42 40 37 36 34 33 31 31 34 36 39 41 44 41 36 36 43 39 38 33 23 22 27 30 32 34 34 31 29 27 28
52 51 52 49 44 41 41 41 39 34 30 29 26 26 28 31 35 40 40 42 38 32 33 43 39 35 23 17 16 19 20 20 25 28 29 31 32 34
54 50 44 41 38 37 38 38 36 32 28 21 23 24 27 30 32 34 35 36 38 35 34 41 34 31 23 23 23 22 21 19 21 23 25 27 28 31
49 43 38 37 36 35 35 33 33 30 25 24 23 26 30 31 27 28 30 32 32 34 34 36 29 24 25 24 24 27 30 27 23 22 23 25 27 31
42 37 36 36 34 33 31 30 28 27 26 25 27 29 30 26 24 26 27 26 27 32 32 29 25 23 19 21 26 27 28 29 32 31 29 26 25 26
38 36 35 33 32 29 28 27 27 28 27 28 29 29 26 23 25 27 24 24 23 27 27 26 22 19 19 24 29 31 36 32 33 36 35 32 28 24
38 35 33 31 30 27 24 25 26 26 28 30 30 26 23 24 26 29 28 26 25 23 23 22 20 19 19 22 28 33 36 40 39 43 38 28 20 19
37 34 30 27 24 22 22 22 24 27 28 27 24 23 24 27 26 28 28 26 27 28 21 16 16 17 18 25 27 34 36 36 40 44 35 21 16 18
33 30 27 25 24 23 24 24 25 25 24 22 21 25 29 30 29 27 27 27 26 25 25 20 15 12 15 17 30 34 35 37 39 38 31 25 14 23
29 27 25 23 23 24 25 25 24 23 21 21 24 27 30 30 29 28 28 27 25 25 23 21 20 21 22 24 22 32 36 35 38 35 26 22 15 18
25 24 22 22 23 24 24 23 22 21 21 24 26 28 30 29 28 28 28 28 27 23 21 20 20 20 23 27 30 30 29 32 35 34 27 20 14 17
21 20 21 22 22 22 22 21 21 22 24 25 26 27 27 27 26 26 26 26 27 24 20 18 18 20 22 25 27 26 22 24 28 31 30 21 15 16
18 18 19 20 20 20 20 19 19 20 23 25 25 26 26 26 25 26 27 27 26 22 19 19 18 18 20 22 23 23 20 20 22 24 26 27 23 23
16 17 18 19 20 20 19 18 19 22 26 27 27 25 24 24 25 25 26 26 24 21 18 16 17 17 19 22 22 20 19 19 20 20 20 21 23 19

GFSNE_700_spd_015.txt.gz
Wind_Speed
43 45 44 44 44 44 44 45 48 52 53 52 54 56 58 60 61 63 64 64 61 56 54 53 51 50 49 48 45 44 44 45 46 47 48 51 49 52
46 47 45 46 45 45 45 46 48 52 58 56 57 58 59 61 61 62 61 57 53 49 48 47 46 44 45 44 43 40 40 40 41 42 44 45 45 44
48 47 46 46 45 45 46 48 51 53 58 58 58 59 59 59 59 56 51 49 49 45 42 40 41 41 40 38 40 42 41 42 41 41 41 43 44 44
47 47 46 46 45 47 49 51 53 55 58 61 60 60 58 54 52 49 48 48 45 40 40 35 32 35 38 40 41 42 42 42 42 44 44 43 42 43
46 46 45 46 47 49 51 53 54 56 58 60 60 56 51 48 49 48 47 44 40 37 32 31 34 34 38 40 40 41 41 42 44 46 48 46 45 45
45 45 45 47 49 50 52 54 55 55 55 54 53 50 47 47 46 47 44 41 33 33 31 33 39 36 34 32 33 36 40 43 43 42 43 46 45 44
44 45 47 49 50 51 52 52 52 52 51 48 46 47 47 45 44 43 42 37 31 34 41 34 39 32 30 29 33 36 36 29 26 27 29 31 35 36
44 45 47 49 51 51 51 50 48 47 44 43 45 46 44 41 41 39 38 39 38 31 44 32 35 29 27 30 31 31 25 23 22 24 26 26 24 26
45 47 48 48 48 48 48 46 43 41 40 41 43 42 41 37 37 37 36 38 40 37 39 34 30 26 28 27 26 24 22 20 22 24 26 25 23 22
47 48 47 46 45 45 44 43 42 40 38 38 38 37 35 33 35 36 38 41 37 34 36 40 31 29 27 19 21 19 19 19 22 25 28 30 30 28
46 45 45 44 43 42 42 41 39 37 34 32 31 32 32 30 32 36 35 38 38 32 32 39 35 32 31 17 18 19 21 23 25 29 32 34 35 35
44 43 42 43 43 40 39 38 36 33 31 28 27 27 29 30 32 32 32 34 38 36 32 39 38 39 37 19 13 20 24 25 29 31 35 36 34 38
43 42 41 41 38 36 35 33 32 31 30 29 29 29 30 30 29 26 28 33 37 37 33 38 38 37 38 38 22 19 23 26 31 32 35 35 35 35
42 41 40 37 34 32 31 30 29 29 30 30 29 27 27 25 25 27 30 32 33 33 31 32 37 37 39 37 34 21 22 27 32 36 39 37 33 33
41 40 36 34 32 29 28 27 28 29 29 28 27 26 26 28 29 32 31 32 30 28 28 30 35 37 36 38 38 29 33 28 29 35 37 34 34 34
39 35 32 30 28 26 25 25 27 28 28 28 28 28 30 31 32 33 33 31 30 24 23 28 31 34 35 34 36 34 32 38 38 37 37 34 32 30
36 32 29 26 23 22 23 25 26 27 26 26 28 31 33 34 31 30 31 31 31 30 28 27 28 30 30 31 32 30 34 36 34 37 36 36 27 26
31 29 26 23 22 22 23 22 24 24 24 25 28 32 34 32 30 29 31 31 32 31 31 31 32 28 25 21 27 30 31 34 33 33 33 35 26 20
28 26 22 21 22 22 23 23 23 23 24 26 29 30 30 30 31 31 32 32 31 31 30 30 30 30 30 26 14 22 33 33 33 30 31 30 27 20
24 21 20 20 21 21 22 23 22 22 23 26 28 28 29 31 31 31 31 33 33 32 29 26 26 27 28 30 29 19 21 30 31 32 32 24 18 21
19 18 19 20 21 21 22 22 21 21 24 26 27 27 28 30 31 30 31 31 33 32 28 24 24 24 25 26 27 23 18 20 26 31 32 21 11 10
14 16 18 19 20 21 20 20 20 22 24 25 26 26 27 28 30 30 30 32 31 29 26 24 22 22 23 26 27 27 23 21 21 24 22 20 19 18
13 15 16 17 18 19 19 20 22 23 24 25 25 25 26 28 28 28 29 29 29 29 26 21 20 21 23 24 25 26 25 23 25 21 17 17 16 17

GFSNE_700_spd_018.txt.gz
Wind_Speed
39 42 43 44 46 45 45 46 48 50 48 45 48 49 51 53 55 58 61 62 61 60 57 55 54 55 54 52 51 49 45 43 41 40 39 38 38 38
42 44 45 46 46 46 46 44 44 48 55 52 53 54 55 56 56 59 61 59 55 51 50 49 48 46 45 44 43 41 38 36 35 36 38 39 40 38
46 46 46 47 46 45 43 44 45 48 54 54 55 57 58 58 58 58 55 51 48 46 45 43 40 40 39 37 37 35 35 36 38 38 39 40 41 42
47 47 47 47 46 44 44 46 48 50 54 57 56 57 57 55 54 52 48 47 46 41 39 36 33 34 33 36 37 38 38 39 39 39 40 39 40 42
47 47 47 46 44 44 46 48 50 51 52 55 57 55 52 50 48 46 46 43 40 36 34 29 33 32 36 38 38 37 37 37 37 37 37 39 39 40
46 46 45 44 45 47 49 49 50 50 51 53 52 50 47 44 43 44 41 39 35 29 32 29 36 36 36 36 34 34 35 36 35 35 30 28 29 31
45 43 43 45 47 49 50 50 51 52 51 50 47 45 42 40 39 40 38 36 29 30 35 31 38 33 31 30 29 31 34 35 31 23 22 21 21 23
41 42 44 46 47 47 47 48 49 49 48 45 43 42 39 37 37 36 36 39 38 29 38 35 34 31 29 26 26 31 33 28 23 20 17 17 19 20
42 44 45 46 46 46 48 48 46 42 40 40 40 37 37 34 36 37 34 35 37 36 41 40 32 30 27 24 24 30 31 25 22 20 20 21 23 25
43 45 46 46 46 47 48 46 41 37 35 34 33 33 33 34 35 38 38 40 36 32 35 43 31 29 27 24 22 25 26 25 24 24 27 27 28 30
43 44 45 46 47 46 45 42 37 33 31 29 28 30 31 32 34 38 36 37 36 31 30 41 36 34 29 25 20 19 22 27 30 30 31 31 32 35
43 43 43 44 43 41 40 39 35 31 28 26 25 26 29 30 30 31 32 37 38 39 31 41 40 41 35 28 22 21 21 25 32 34 34 33 36 38
44 43 40 40 39 37 35 33 31 29 28 28 28 27 26 26 26 28 31 36 39 40 32 38 40 39 41 40 31 25 23 21 28 31 31 32 34 36
44 41 40 38 35 32 30 28 27 28 28 28 27 25 25 25 27 29 30 31 32 35 31 33 39 38 41 42 39 30 25 22 26 28 30 31 32 34
41 39 37 34 31 27 25 26 26 28 28 27 25 24 26 29 30 31 29 30 30 28 30 31 35 38 40 41 41 33 33 26 23 27 28 32 33 34
38 34 32 29 26 25 23 24 25 26 27 27 26 26 29 31 30 31 32 33 33 29 26 30 32 36 38 36 36 35 30 34 29 29 32 32 28 27
36 32 28 24 20 20 21 23 23 25 25 24 26 29 31 31 29 30 32 34 35 36 34 28 28 30 31 32 32 28 29 31 29 31 32 33 24 25
31 29 24 21 19 19 19 20 22 24 25 24 26 30 32 32 32 31 33 33 35 36 35 33 32 30 25 23 28 29 27 31 31 31 29 33 27 17
26 23 19 17 17 18 20 21 22 24 24 25 28 30 32 32 33 33 33 33 34 34 33 31 31 32 32 27 20 27 32 31 32 28 26 28 27 20
21 18 15 16 17 19 20 21 22 23 24 26 28 29 30 31 32 33 33 33 35 35 33 28 26 27 30 34 31 21 20 29 32 32 30 25 21 20
14 13 14 15 17 18 20 21 23 24 26 27 27 28 28 30 31 32 32 32 33 32 30 26 25 25 26 27 28 22 18 21 25 30 31 25 19 15
10 12 14 16 17 18 19 21 22 24 24 25 26 27 28 29 31 31 31 32 30 29 26 26 27 26 26 26 26 26 26 22 21 23 24 25 22 16
10 12 14 15 17 18 19 20 22 23 24 25 26 27 28 29 28 29 30 29 29 27 27 26 26 26 25 24 25 25 26 26 25 21 18 20 18 17

GFSNE_700_spd_021.txt.gz
Wind_Speed
30 33 36 41 45 46 47 49 51 53 50 40 43 43 46 49 50 51 54 56 58 57 57 58 56 56 55 55 55 54 53 50 46 43 40 39 38 38
33 35 40 45 47 47 49 49 49 49 52 49 48 49 50 50 52 55 57 57 56 53 52 51 50 50 49 50 50 47 45 41 40 38 37 36 35 35
36 41 45 48 47 48 48 48 46 47 51 52 52 52 52 54 55 56 54 54 52 48 46 44 43 43 43 41 40 37 36 36 35 37 38 38 39 39
42 46 49 49 48 48 47 45 46 48 51 54 53 54 54 55 57 55 51 48 46 42 39 36 36 38 35 34 35 37 37 38 39 39 39 38 37 37
46 48 49 48 48 47 46 46 47 48 49 52 55 54 55 52 51 48 46 44 39 34 33 31 30 33 32 35 38 39 39 39 40 38 37 34 33 33
47 50 46 47 46 46 47 48 49 49 50 53 55 55 52 47 45 46 41 37 32 27 30 32 31 33 34 36 37 37 38 38 37 35 33 33 33 31
47 45 45 44 45 47 48 49 50 51 51 53 54 51 46 43 41 39 37 35 32 28 31 34 32 34 32 33 34 34 34 36 36 34 34 32 27 25
42 42 41 43 44 45 46 48 49 48 50 51 49 46 41 38 36 36 37 36 36 28 32 35 30 33 31 32 31 32 31 35 35 33 29 27 26 25
40 41 41 43 44 45 47 48 46 44 44 45 43 39 38 35 36 37 36 37 35 31 35 38 32 34 31 30 29 28 29 33 35 32 28 28 28 29
40 41 43 44 46 47 48 48 45 42 39 37 34 34 34 34 35 38 37 39 36 31 33 42 37 36 32 28 26 25 24 28 34 33 30 30 31 32
39 41 44 46 46 46 47 45 41 35 32 29 28 29 31 32 33 36 34 37 37 34 28 39 38 39 37 28 26 22 23 25 29 34 35 32 34 35
41 42 43 44 44 43 43 41 36 31 27 24 23 25 28 28 28 31 34 37 39 41 30 38 39 40 45 33 29 25 24 24 27 32 36 37 37 38
42 42 41 42 40 38 37 34 31 28 26 26 25 25 24 24 25 27 31 35 36 36 31 38 43 41 43 46 37 33 27 25 26 27 32 35 38 40
43 42 41 40 37 34 31 29 26 26 26 26 26 25 24 23 25 28 29 30 31 34 35 35 42 41 44 45 42 34 28 25 26 24 28 31 35 38
43 41 40 36 32 29 26 24 24 25 26 26 25 24 25 27 28 30 28 30 31 29 29 33 37 39 40 42 43 36 32 26 23 25 25 27 28 32
41 37 34 30 27 25 21 23 24 25 27 28 27 26 27 29 28 30 31 33 34 29 26 31 35 37 38 37 37 34 30 33 28 27 28 25 23 26
38 33 27 24 20 18 20 21 23 24 25 26 26 28 29 30 30 31 32 34 35 35 33 31 30 32 32 33 32 28 27 27 27 28 28 29 20 22
32 26 20 17 15 16 18 19 21 23 24 25 26 29 31 32 33 31 33 35 35 34 34 34 34 32 28 24 29 27 22 27 27 27 27 31 23 19
21 16 13 12 14 16 17 18 19 21 23 26 28 30 30 31 33 33 33 34 33 33 32 31 30 32 35 32 24 26 32 30 32 28 28 28 29 22
14 11 10 13 14 15 16 17 19 22 24 25 26 27 30 32 33 33 32 33 33 32 31 27 27 30 34 38 35 25 22 30 33 34 32 30 28 22
9 10 11 12 13 14 16 18 21 22 22 23 26 27 29 31 30 31 31 30 30 29 28 27 28 30 31 31 29 26 20 21 30 34 33 32 27 21
8 9 10 11 13 14 15 17 18 19 20 23 25 27 28 29 30 30 29 29 28 29 29 29 31 32 31 30 29 29 27 24 24 26 27 30 31 26
8 9 10 11 13 14 16 16 17 18 20 22 25 28 28 28 28 29 29 29 30 31 32 31 30 32 31 30 30 30 31 31 31 25 19 23 26 26

GFSNE_700_spd_027.txt.gz
Wind_Speed
34 38 38 36 34 35 38 40 42 47 51 50 51 48 48 47 48 50 52 54 55 56 57 59 60 62 63 62 62 62 62 60 58 54 52 49 48 46
38 34 43 35 35 36 40 42 45 52 57 57 55 51 50 48 50 53 54 56 58 60 61 62 62 62 61 59 57 54 51 49 47 45 45 44 43 41
31 35 34 35 37 38 41 45 51 56 57 58 54 52 53 53 53 54 56 58 60 60 60 60 59 56 53 51 48 46 44 44 44 43 42 41 40 39
41 38 32 41 37 40 45 51 54 55 57 55 54 54 55 55 57 59 59 59 60 57 54 51 49 47 45 44 44 43 44 44 45 45 44 42 42 42
35 33 34 35 39 44 51 54 54 52 52 53 55 56 57 56 59 59 60 58 55 48 42 42 41 41 42 43 44 44 44 46 46 46 44 43 43 43
30 31 33 37 44 49 51 51 49 50 51 53 55 58 59 58 59 60 58 49 45 38 36 38 38 38 38 40 42 43 43 44 46 46 45 43 41 42
29 30 36 43 45 48 46 46 48 50 52 54 57 59 58 57 54 52 49 44 38 36 35 35 35 35 33 35 39 40 41 43 45 46 44 42 40 39
29 35 39 42 43 44 45 47 50 52 53 56 58 57 54 50 47 44 42 41 41 35 33 31 32 34 35 37 37 37 39 40 41 42 43 42 39 38
33 37 38 39 41 43 45 48 50 50 52 55 53 49 48 43 42 40 40 39 37 34 36 37 38 38 36 34 31 34 36 35 37 40 41 42 39 37
33 35 36 39 41 44 47 50 52 51 50 48 44 42 39 36 37 39 38 39 38 36 36 41 39 38 36 35 33 33 31 32 34 38 40 40 40 37
33 36 38 40 42 46 50 52 50 46 44 39 36 33 32 34 35 38 38 40 40 38 37 43 38 40 41 39 36 32 29 29 31 34 38 42 42 39
34 37 39 43 46 48 49 49 47 43 36 29 25 25 29 30 33 37 39 41 42 42 37 45 42 45 47 42 40 35 34 32 30 33 36 38 39 41
34 37 41 45 46 47 46 45 43 36 27 23 22 22 23 27 30 31 34 37 40 40 37 44 45 43 46 50 44 38 36 31 29 28 30 33 36 38
37 39 43 44 45 45 45 41 32 25 21 21 20 21 24 25 27 29 31 34 37 40 36 38 45 44 46 47 46 38 31 28 28 26 27 28 30 33
40 42 43 45 44 42 36 26 20 18 18 18 19 20 24 26 27 29 30 32 33 34 36 36 40 41 43 44 45 37 35 31 28 28 27 27 26 28
42 43 44 42 39 30 19 16 15 16 16 17 18 21 23 26 28 30 30 30 31 28 30 32 35 37 37 37 38 36 34 35 30 28 29 28 26 26
42 41 39 34 24 16 14 14 15 16 17 19 20 21 23 25 27 28 30 30 32 31 26 26 31 34 35 37 36 33 33 30 26 29 29 28 23 24
37 34 27 18 12 11 13 14 15 15 17 19 20 22 24 26 26 26 29 31 32 31 31 31 33 33 32 28 35 36 30 31 28 27 30 32 25 22
31 25 15 11 11 12 11 12 13 16 17 18 19 21 23 25 27 29 30 32 32 33 33 33 34 38 39 37 29 33 38 34 35 33 31 33 36 27
21 12 10 11 10 10 11 12 14 15 16 18 19 22 23 26 27 29 32 33 34 34 33 33 34 35 37 41 43 34 29 36 37 37 35 33 32 29
10 9 9 9 9 10 12 13 14 15 16 17 20 22 24 27 28 31 33 35 37 37 37 35 34 33 35 37 39 34 30 29 32 35 37 38 37 32
7 7 8 9 10 11 13 14 15 16 17 18 20 22 25 28 31 33 34 36 36 38 37 36 36 36 36 36 37 37 34 30 25 25 26 29 34 38
5 6 7 9 11 13 14 15 16 17 18 18 20 22 26 29 31 33 34 35 37 39 39 40 37 35 35 34 36 34 32 29 27 23 19 24 25 27

GFSNE_700_spd_030.txt.gz
Wind_Speed
37 41 36 35 31 35 43 38 37 41 41 36 41 45 51 51 51 51 51 51 52 52 52 54 56 58 60 61 62 63 63 62 61 60 58 55 52 49
42 42 35 42 40 38 37 39 37 40 44 44 45 50 51 50 48 49 51 53 53 54 56 58 61 63 63 63 62 60 57 53 51 49 47 45 43 42
47 47 44 43 35 40 39 36 38 42 44 47 52 51 50 48 48 50 52 54 56 56 57 59 61 61 59 56 54 51 48 45 43 41 40 41 41 40
44 50 51 39 44 40 41 38 37 42 47 50 49 49 48 48 51 53 55 56 58 57 55 55 54 51 49 46 46 44 44 43 42 40 40 40 39 39
46 53 43 38 41 40 39 37 39 45 47 48 47 48 49 50 53 55 58 57 55 51 47 45 43 42 41 41 41 41 42 40 39 40 40 40 40 39
53 46 46 41 38 39 35 38 43 45 44 45 47 49 51 53 55 57 59 54 49 41 37 38 37 37 37 37 38 39 40 40 42 42 43 43 42 40
44 41 38 38 33 32 38 40 41 41 43 45 48 50 53 53 54 55 52 47 38 34 35 33 33 33 32 35 37 38 40 41 42 42 43 44 44 43
40 34 31 28 31 35 37 38 40 42 44 48 50 51 52 53 52 48 44 40 38 31 33 33 34 33 35 36 37 37 35 35 36 38 39 40 41 42
29 26 28 32 33 35 37 39 41 43 47 49 51 51 52 48 45 40 37 37 35 33 35 37 36 36 34 33 33 33 35 36 37 38 39 41 43 43
22 28 31 31 33 36 39 41 43 44 46 48 48 47 44 39 37 36 34 34 36 34 36 42 35 37 35 34 33 33 33 34 34 35 38 41 44 45
25 29 32 33 35 38 42 45 46 45 46 45 43 39 34 31 32 32 32 36 37 34 34 42 36 39 38 34 32 31 30 30 30 33 36 40 43 45
29 32 34 35 38 42 45 47 47 47 44 38 32 27 26 27 28 31 34 37 39 39 35 43 37 41 44 33 32 31 29 28 29 31 34 37 39 42
30 32 35 39 42 45 46 47 47 45 37 28 20 20 21 22 24 27 32 35 37 36 34 44 42 40 43 45 33 31 29 25 26 27 28 31 35 38
32 36 40 43 45 45 45 45 43 36 25 17 17 17 17 19 22 26 29 31 33 36 33 38 44 42 44 43 39 31 28 29 29 28 29 29 30 32
37 40 42 44 44 43 42 39 30 19 15 15 15 15 17 18 22 24 26 28 27 29 32 35 39 40 41 43 45 35 36 27 28 30 30 29 26 26
41 42 40 39 38 35 28 20 15 14 13 13 13 15 17 18 22 25 25 26 25 24 26 31 35 39 41 41 43 40 35 37 31 32 32 27 25 24
39 37 35 31 27 19 13 11 12 11 12 14 15 16 18 20 21 24 26 27 30 31 27 28 33 36 37 38 41 37 34 32 31 30 29 27 24 25
32 26 23 17 11 10 11 11 12 13 15 16 17 18 19 21 22 24 27 31 32 33 35 35 37 36 33 29 33 35 32 31 29 28 30 33 25 21
19 16 10 9 10 9 9 11 13 15 17 18 18 19 21 23 25 27 30 34 34 36 36 37 38 40 42 40 30 30 37 37 36 31 30 30 31 26
10 7 7 7 7 9 11 12 15 16 18 18 19 21 23 24 27 30 33 36 37 36 36 34 35 37 39 41 42 31 28 34 34 34 32 30 30 28
5 5 5 6 8 9 11 14 16 17 17 18 19 21 23 25 28 31 34 35 38 38 38 36 34 33 34 35 36 33 27 23 25 29 30 31 30 28
4 4 5 7 8 10 13 16 17 19 19 19 19 20 22 25 28 32 36 38 36 37 38 38 34 33 33 34 34 33 30 20 15 19 21 27 32 35
3 5 6 8 11 13 16 18 20 20 20 19 19 20 22 25 29 34 37 37 38 40 41 41 37 32 32 33 32 31 27 23 20 15 19 28 30 33

GFSNE_700_spd_033.txt.gz
Wind_Speed
37 38 37 40 40 44 43 41 39 41 41 44 41 41 41 42 45 50 52 50 48 47 48 49 50 52 53 55 57 58 60 61 60 60 59 57 58 56
39 41 40 48 49 45 42 50 44 45 43 43 39 40 44 44 47 51 49 49 49 49 51 52 54 55 57 59 60 60 58 54 51 49 48 47 47 46
38 43 47 50 52 49 43 51 42 46 46 46 42 42 40 45 48 48 47 49 49 49 52 54 56 57 58 55 52 49 46 45 43 42 42 42 43 43
40 44 52 47 55 47 45 50 49 48 47 43 41 40 43 44 46 46 47 48 50 50 52 53 53 52 48 44 41 40 41 42 41 41 40 39 40 40
43 49 54 51 55 41 45 52 51 45 42 38 41 41 42 43 45 46 48 48 49 48 49 48 44 39 38 38 38 38 38 39 40 40 40 39 39 39
44 46 53 49 48 40 46 46 43 39 38 40 38 43 44 44 46 48 49 48 45 40 40 37 34 34 33 35 38 39 40 41 42 43 43 44 43 42
40 46 48 44 43 40 40 37 37 38 42 37 40 44 44 45 47 48 49 47 41 33 31 28 29 29 31 35 36 38 40 41 42 42 40 39 39 39
41 38 37 35 34 32 34 35 37 35 37 39 41 43 45 45 47 47 46 43 35 24 28 26 29 28 32 33 33 35 36 37 39 39 39 40 40 41
29 28 28 28 29 33 34 37 36 36 39 41 42 43 46 46 46 45 39 34 29 25 30 31 32 32 32 30 31 33 35 37 38 39 40 40 41 42
20 23 24 28 31 32 33 36 36 36 40 41 44 45 45 44 42 37 30 27 26 26 31 36 32 34 32 29 28 29 30 32 35 37 39 40 41 43
21 22 25 25 30 34 36 38 38 39 40 41 43 43 42 38 33 28 26 26 28 28 30 38 31 35 31 25 24 24 26 28 30 32 34 36 39 41
21 23 27 31 35 36 39 39 40 41 41 41 40 37 33 26 24 24 25 26 30 32 32 37 31 35 38 25 25 25 25 25 28 30 32 34 36 39
25 28 32 35 37 38 41 43 44 43 40 36 28 22 19 20 21 22 24 27 30 30 32 39 36 35 39 43 27 27 28 26 29 29 31 34 36 38
29 33 37 39 41 42 42 40 37 33 25 16 12 14 15 17 19 20 23 25 27 30 29 35 38 39 41 41 41 31 29 28 29 28 30 32 33 35
34 37 39 40 39 36 32 27 21 14 11 12 12 13 14 16 18 18 21 22 22 26 30 32 37 38 40 42 45 39 42 30 28 31 31 32 31 30
38 38 36 31 26 21 17 13 12 12 12 11 12 13 15 16 19 21 21 23 22 22 28 32 35 39 40 40 42 41 40 42 34 31 34 29 28 28
31 27 22 19 16 11 9 10 9 9 11 13 14 15 16 17 20 22 23 25 28 29 28 31 35 37 39 40 40 38 40 37 33 33 33 30 27 28
22 16 13 9 7 8 8 8 9 11 13 15 16 16 16 17 18 20 24 27 29 31 32 33 36 37 36 33 36 32 32 35 32 30 31 32 23 18
12 9 6 6 5 4 7 9 12 14 15 16 17 18 18 18 19 20 23 27 30 32 32 35 36 40 43 39 30 32 33 29 32 28 25 25 23 15
8 6 6 5 4 6 8 11 13 15 17 18 19 19 19 18 19 21 25 29 33 35 35 34 37 39 40 40 37 28 26 31 30 27 25 21 16 16
6 6 6 6 6 7 9 13 15 17 18 19 20 21 20 20 20 23 27 30 35 38 38 36 36 36 36 34 33 31 25 24 25 25 24 23 19 16
7 6 7 8 7 9 12 15 17 19 20 21 22 23 23 23 24 26 29 33 35 39 40 39 39 37 36 35 35 34 30 24 22 25 23 23 26 21
7 7 8 9 10 12 14 16 18 20 23 24 24 25 25 26 27 29 32 35 38 40 42 42 44 40 37 35 35 35 31 29 27 22 21 23 23 23

GFSNE_700_spd_036.txt.gz
Wind_Speed
43 42 42 42 41 43 41 44 44 49 49 47 49 48 51 51 51 53 50 50 47 47 50 51 50 49 49 49 50 51 52 54 56 58 59 59 59 59
45 45 48 45 45 41 42 50 48 55 50 58 48 54 52 54 52 52 52 51 50 48 49 51 51 51 51 52 53 54 55 57 57 56 53 50 49 47
47 51 46 43 48 44 46 54 49 55 56 56 53 54 55 57 52 49 51 49 50 48 50 52 52 53 53 54 55 55 55 55 53 47 44 43 43 42
44 45 48 47 46 46 50 51 58 56 51 50 53 53 53 52 49 47 47 48 46 49 50 51 52 53 53 53 53 51 49 45 41 40 41 41 41 40
45 43 44 46 50 46 49 52 53 51 46 46 47 51 49 47 45 47 46 46 47 47 50 51 52 51 49 48 46 43 39 39 40 42 43 43 42 42
39 39 44 42 44 45 53 49 46 45 45 47 45 45 46 46 48 46 46 46 46 46 48 49 47 45 41 41 37 36 37 39 42 44 44 43 42 41
36 37 41 41 46 51 42 38 40 40 41 41 42 45 46 44 44 46 47 47 46 43 44 43 40 36 34 35 35 37 39 41 43 43 43 42 40 39
36 37 40 43 42 39 34 32 34 36 39 43 44 43 42 43 44 46 45 46 45 37 38 34 29 28 32 33 33 34 37 40 42 43 43 43 42 41
39 35 35 30 30 28 28 30 33 39 44 42 40 40 42 43 44 44 42 43 40 30 31 27 25 28 29 28 28 31 35 38 40 41 42 42 41 40
19 19 19 20 24 27 32 35 34 40 40 40 40 41 42 42 43 44 40 37 30 21 23 27 26 29 29 25 25 28 32 35 37 38 40 42 42 41
11 15 20 25 29 30 33 36 38 37 38 39 41 42 43 42 40 36 27 23 20 16 22 29 27 31 29 22 23 24 27 29 32 35 38 40 41 42
17 20 23 26 30 33 36 37 37 37 38 40 40 39 35 30 24 20 19 18 20 21 28 28 26 31 33 20 22 25 27 28 30 32 36 40 41 43
20 25 27 31 34 35 39 39 38 36 33 29 25 21 18 17 17 18 19 20 21 24 29 34 28 30 34 38 27 28 30 30 32 31 35 37 38 41
26 29 32 35 38 39 39 35 28 22 17 13 12 13 14 15 17 18 20 21 23 25 27 34 36 38 40 41 40 33 31 32 35 31 32 32 34 36
32 35 36 36 34 29 22 16 13 10 10 11 11 13 14 16 18 19 21 22 22 25 28 33 37 39 40 42 44 38 40 33 33 34 34 32 31 31
34 34 33 30 23 17 12 9 9 9 10 11 13 15 17 18 18 19 20 21 20 21 26 31 34 37 38 40 42 41 40 42 36 35 36 31 30 32
32 30 25 19 13 9 8 9 8 9 11 13 15 16 17 18 19 20 20 20 21 21 22 29 35 36 38 40 42 40 37 36 35 36 36 34 26 24
27 21 16 12 9 9 8 8 9 10 12 15 17 18 18 19 19 21 21 21 21 23 27 30 34 37 36 36 41 35 32 32 32 33 32 34 26 18
22 17 12 10 10 9 9 11 13 13 15 17 19 20 20 21 21 22 22 23 24 26 28 33 37 41 43 43 39 40 36 30 34 32 31 29 26 15
19 15 11 11 10 10 11 13 15 17 17 18 20 22 23 24 23 24 25 27 28 29 30 32 37 41 43 45 43 36 32 30 32 33 31 29 26 21
16 13 12 11 11 12 13 15 17 20 20 20 21 23 25 26 26 28 29 30 33 34 35 36 37 41 43 42 41 36 32 30 32 35 32 32 32 25
13 13 13 13 13 14 15 17 19 22 23 23 23 25 27 28 29 30 31 33 34 37 38 39 39 42 43 42 44 41 36 31 31 33 32 31 30 34
13 13 13 14 15 16 17 19 21 23 25 26 26 28 29 30 32 33 33 34 36 38 39 41 41 42 43 43 44 42 39 34 35 32 29 28 28 29

GFSNE_700_spd_039.txt.gz
Wind_Speed
53 52 51 49 48 47 46 48 46 46 47 36 46 43 51 50 49 56 46 58 51 52 54 56 55 52 52 52 52 51 50 50 51 51 51 52 53 54
50 52 53 50 48 50 54 51 53 50 46 41 46 52 51 49 55 53 54 53 58 56 58 57 54 54 52 52 52 51 50 50 51 52 52 53 53 53
49 48 50 52 52 49 53 55 47 44 43 45 49 54 56 52 54 50 54 54 56 53 55 54 52 51 53 52 53 53 51 50 51 52 52 51 49 46
47 47 45 46 48 52 53 52 47 40 43 42 47 52 54 52 44 48 48 50 51 51 52 51 50 48 52 52 53 51 49 49 50 50 49 46 42 41
41 43 44 43 42 44 43 47 52 41 50 45 48 53 49 45 48 48 47 48 47 49 50 47 47 49 49 50 50 50 49 48 47 45 42 41 42 43
39 37 41 43 42 43 44 46 48 46 43 41 42 41 42 43 44 44 46 47 50 45 42 46 46 46 48 49 49 47 43 40 39 39 41 43 44 42
35 35 36 40 41 39 44 38 44 43 44 40 37 37 38 41 43 46 48 45 44 40 44 46 46 47 45 43 40 36 35 36 38 40 43 44 43 41
29 29 33 39 38 34 36 40 41 39 34 33 35 38 40 45 44 43 45 46 45 40 46 45 43 40 35 31 29 30 33 35 38 41 42 43 41 40
24 29 34 34 35 28 32 33 32 31 32 37 40 39 40 41 43 44 44 45 42 39 42 34 27 25 22 23 25 27 30 33 37 40 41 41 41 39
22 27 29 29 27 31 28 26 31 33 35 38 40 39 41 41 43 44 41 38 32 24 26 20 18 19 19 20 21 23 26 31 34 37 39 39 39 39
12 15 16 20 21 24 27 30 33 36 38 38 41 42 40 38 36 31 26 20 14 12 19 20 19 23 20 16 19 20 24 28 31 33 35 36 37 39
11 15 19 22 25 28 32 35 36 37 40 41 37 32 27 23 18 14 13 12 14 12 21 20 21 27 28 18 21 23 26 28 32 34 34 34 36 40
17 21 24 29 31 34 36 38 36 36 32 27 22 17 13 13 13 13 14 14 15 17 23 28 22 25 30 34 25 22 26 28 32 33 35 35 36 37
25 28 31 33 35 36 36 34 30 24 19 14 12 12 12 14 14 15 17 18 18 19 22 28 29 29 31 33 34 29 28 30 34 36 36 35 33 33
29 30 32 33 33 31 28 24 18 13 10 10 10 12 13 15 17 18 19 20 19 21 22 26 29 29 32 34 38 33 36 32 34 36 35 33 30 30
31 31 32 30 27 23 19 15 11 10 9 10 12 14 16 18 20 21 21 22 21 20 22 24 26 29 31 34 37 36 36 42 36 34 33 33 32 29
33 32 30 26 22 18 14 12 11 10 11 11 13 16 18 20 21 23 23 24 24 22 21 24 29 31 32 35 38 37 37 37 37 37 35 34 31 26
32 30 28 24 19 14 13 13 12 11 12 13 16 18 20 22 23 24 25 26 27 26 27 26 29 33 36 35 40 39 38 39 36 36 35 36 33 25
32 30 26 22 18 15 14 13 13 13 15 16 18 21 22 24 25 25 26 28 29 30 30 32 33 36 42 42 39 40 40 40 40 37 34 33 36 28
30 28 24 20 16 16 15 15 16 16 17 19 20 23 25 26 27 28 28 30 31 32 33 33 34 37 42 45 46 42 40 39 36 36 34 33 33 30
27 24 21 17 16 15 15 17 18 19 21 23 24 25 27 28 28 30 31 31 33 34 35 35 34 37 41 44 47 44 42 39 36 34 35 35 34 33
24 21 17 17 16 16 18 18 19 22 24 26 27 28 30 31 32 33 34 35 35 36 37 37 36 37 39 42 45 46 43 39 34 32 32 31 31 34
21 18 16 16 16 17 18 20 22 24 26 28 29 30 32 33 33 35 35 36 37 37 38 39 38 38 40 42 45 46 44 41 35 34 34 29 29 27

GFSNE_700_spd_042.txt.gz
Wind_Speed
49 49 48 48 48 50 50 50 50 55 56 57 54 55 44 45 37 42 40 38 46 45 51 52 49 51 53 54 53 51 51 52 50 49 49 47 47 47
41 43 45 46 46 46 47 48 50 52 56 58 53 45 47 45 41 39 43 45 48 48 50 46 51 49 50 50 50 48 47 49 50 50 47 48 48 48
43 41 40 43 44 44 45 47 49 52 55 59 52 49 41 35 41 40 44 44 41 46 43 45 46 47 47 47 46 47 48 47 47 47 47 47 48 48
33 34 36 38 39 41 41 41 44 44 47 42 42 42 42 45 41 41 42 42 42 40 46 46 45 44 46 48 48 46 45 47 46 46 46 48 48 48
39 35 31 34 36 35 38 39 39 38 38 35 33 36 39 35 39 40 39 41 41 40 40 42 43 46 46 44 43 43 45 47 46 46 47 46 45 42
33 30 33 33 35 35 34 36 35 38 40 40 40 37 37 38 38 34 36 38 37 38 42 44 42 43 42 44 44 45 46 46 44 43 41 38 37 37
31 37 37 27 27 27 29 33 32 39 42 33 41 35 35 33 32 33 36 38 39 37 41 41 43 44 43 43 43 42 41 39 36 33 33 34 36 36
29 33 32 22 23 23 26 31 29 28 33 36 37 32 30 33 36 37 37 40 40 38 45 40 45 43 40 38 34 29 26 26 29 31 32 34 35 35
29 23 18 21 23 25 29 26 30 35 34 31 30 31 34 36 39 38 40 42 42 40 41 30 31 25 21 17 18 19 23 25 27 29 32 33 34 34
23 19 14 16 16 19 21 24 27 26 28 31 32 34 37 38 41 40 38 33 26 24 22 11 15 11 12 15 18 19 21 24 27 31 33 34 35 36
12 10 9 13 16 19 21 23 26 29 32 34 36 38 39 38 33 24 20 13 11 13 19 14 16 15 14 14 16 19 22 26 30 32 34 35 36 37
15 16 17 19 22 25 27 30 33 35 37 38 36 32 25 20 13 11 12 13 13 13 20 19 18 23 17 11 14 20 23 26 28 30 32 34 36 38
21 22 24 27 29 30 32 34 35 35 33 29 22 15 10 9 11 12 14 14 15 16 22 23 17 20 22 20 9 16 20 22 25 27 30 34 35 36
24 25 26 27 28 29 30 30 30 27 23 18 12 10 10 11 12 13 15 16 16 18 21 25 21 22 21 21 20 16 20 23 26 29 31 32 32 33
27 28 28 29 30 30 28 26 24 20 16 12 11 12 12 13 15 16 16 18 18 19 22 24 25 24 25 25 27 23 29 24 28 32 33 33 33 31
28 29 30 30 30 29 27 24 21 16 12 13 13 13 14 15 17 18 18 21 20 20 23 25 27 28 28 29 33 29 30 35 34 34 36 33 32 31
31 31 30 30 28 26 24 20 16 14 13 13 14 15 16 17 19 21 22 22 22 22 22 25 29 31 32 34 37 34 35 34 36 38 37 35 30 27
31 30 30 28 26 22 20 16 15 14 14 15 16 17 18 19 20 21 24 25 25 25 25 26 30 33 35 35 38 39 35 37 36 37 37 39 39 33
30 29 28 27 24 19 15 14 14 13 15 16 17 19 21 22 23 23 25 27 27 27 27 28 30 34 38 39 34 38 38 37 39 38 38 39 43 36
28 27 26 25 22 18 16 15 14 15 17 18 20 22 24 25 25 26 27 29 30 30 30 29 31 33 37 39 40 35 33 37 38 40 39 40 40 36
26 25 23 21 19 18 17 17 18 18 20 21 23 25 26 28 28 29 30 31 33 33 33 31 32 35 37 40 42 40 36 35 36 40 40 41 39 36
22 22 21 20 19 18 19 19 19 21 23 25 27 27 29 29 30 31 32 33 32 33 34 34 34 36 37 40 41 42 39 37 37 38 38 36 37 37
22 21 21 20 20 20 20 21 22 23 25 27 28 28 30 31 31 32 33 34 34 35 35 36 35 37 38 40 42 43 42 40 39 40 36 32 31 29

GFSNE_700_spd_045.txt.gz
Wind_Speed
42 42 43 44 42 42 43 38 39 44 44 47 48 52 60 47 57 45 48 47 41 37 39 39 38 41 41 44 46 49 50 45 46 46 47 45 44 44
43 41 40 41 42 42 43 39 39 40 45 46 44 55 46 51 39 39 41 33 35 39 37 37 37 39 43 46 43 45 44 44 43 43 42 42 43 43
40 41 44 41 37 42 43 44 33 37 38 43 42 44 43 38 54 37 28 30 38 37 35 39 40 43 42 41 44 43 42 42 41 42 42 43 43 42
33 34 38 39 37 40 40 46 40 32 36 39 34 36 42 28 33 34 36 33 32 35 40 42 40 41 41 40 40 40 42 43 43 42 42 42 43 43
33 34 30 35 32 30 32 36 36 34 32 39 34 31 26 22 26 26 28 32 33 35 36 37 36 38 36 38 41 42 42 43 43 43 44 44 45 44
31 31 32 34 35 36 33 29 30 29 31 31 32 22 22 24 26 31 34 32 28 29 34 36 38 39 38 41 42 44 45 44 43 43 43 43 41 39
22 28 30 30 31 31 33 25 29 26 26 25 26 24 28 30 28 27 26 28 30 33 36 36 38 40 42 44 45 46 44 42 40 37 34 32 31 30
21 21 20 22 23 24 24 14 21 23 25 27 27 29 26 27 26 27 31 32 31 36 41 35 45 42 43 41 37 32 28 24 22 23 24 26 28 29
20 20 19 17 22 22 20 21 25 26 25 25 25 26 26 29 30 31 33 35 36 37 39 28 30 24 20 18 15 14 16 19 22 24 26 26 28 29
15 14 11 9 9 12 14 16 19 20 21 23 26 27 31 33 34 35 36 34 29 25 18 13 15 12 12 14 14 17 20 23 25 26 28 30 32 32
16 15 15 15 18 20 21 23 24 26 28 30 31 33 35 36 36 32 26 18 15 16 17 13 15 13 13 16 17 20 23 25 27 29 31 33 34 35
19 19 19 20 22 23 24 26 27 29 30 31 31 31 31 29 26 19 14 13 13 15 20 18 16 17 14 15 18 21 24 25 26 28 30 31 32 34
21 21 22 23 24 26 27 28 28 28 28 28 26 24 22 19 16 14 13 14 15 16 20 20 17 21 21 14 16 21 21 21 22 24 27 29 30 33
23 24 25 25 26 27 27 27 27 25 23 21 19 17 14 14 14 14 15 16 17 18 21 23 19 22 23 21 15 20 21 22 23 25 28 28 29 31
24 25 25 26 26 26 26 25 24 23 21 19 16 13 13 14 15 15 17 18 19 20 22 23 24 24 25 25 24 20 24 22 25 27 31 31 30 31
25 26 26 26 26 25 24 23 22 19 17 15 14 14 15 15 16 17 18 20 19 20 23 24 26 27 26 28 30 27 26 31 28 30 35 33 31 32
26 26 26 25 25 24 23 21 19 17 15 15 15 16 17 18 19 20 22 22 21 20 21 24 27 29 30 30 32 31 31 32 33 34 36 37 33 32
26 25 24 24 23 23 22 20 18 17 16 16 16 17 19 20 21 23 25 25 24 24 24 24 26 29 31 30 32 33 33 34 33 35 37 40 34 32
25 24 22 22 22 21 20 19 18 17 17 16 18 20 21 22 23 24 26 27 27 27 27 27 29 32 35 34 30 31 36 33 36 35 36 37 38 32
23 22 22 21 21 20 19 18 17 17 18 19 20 21 23 24 25 26 27 28 29 28 28 27 29 32 35 36 37 28 30 37 37 37 36 37 38 36
22 21 21 21 21 21 20 19 19 20 20 20 21 23 25 27 26 27 27 28 30 30 30 29 29 33 35 38 39 35 31 32 38 41 39 40 39 38
21 22 22 22 23 23 23 22 22 22 23 24 24 25 26 28 28 28 30 31 31 32 32 31 31 32 34 37 38 39 35 34 35 37 39 41 42 43
21 22 23 24 25 25 25 24 24 24 25 25 26 27 28 29 30 31 31 30 31 31 32 32 33 35 36 38 40 41 41 39 39 41 38 35 36 38

GFSNE_700_spd_048.txt.gz
Wind_Speed
40 41 40 40 41 39 39 41 40 45 49 41 53 39 39 43 42 46 42 43 41 41 52 48 39 34 36 37 35 36 37 41 46 49 46 43 40 41
38 40 40 39 39 39 41 42 41 41 45 51 48 42 40 39 45 45 35 40 33 36 35 32 28 30 29 31 35 39 42 43 45 43 41 40 41 40
34 33 33 33 33 33 35 39 42 43 47 44 45 46 43 37 35 41 31 32 32 28 28 35 32 32 34 37 39 41 41 41 41 42 38 36 38 37
28 27 29 31 33 33 31 34 39 39 44 46 37 43 30 21 29 25 34 29 26 27 27 35 34 35 38 40 38 37 38 40 38 39 38 38 39 39
21 25 29 31 31 28 29 31 35 37 37 39 30 32 32 26 18 21 17 22 26 27 32 34 36 38 35 32 33 35 37 38 39 41 40 41 41 42
22 23 24 24 24 26 29 31 36 35 34 29 31 25 27 19 18 21 24 27 28 31 34 31 32 31 33 35 37 38 39 40 41 42 43 43 43 43
22 23 24 24 23 24 23 25 20 25 24 29 27 25 26 23 23 26 25 26 27 29 30 32 32 34 36 38 39 40 42 43 43 42 40 38 37 36
20 20 26 20 21 19 22 25 18 21 23 25 27 33 27 27 26 26 26 26 29 31 32 32 36 38 40 41 41 37 33 30 28 26 24 23 23 23
8 13 12 10 11 10 12 15 15 19 22 25 25 26 27 26 27 29 29 30 31 34 37 31 39 37 33 28 24 21 19 19 18 19 20 22 24 25
12 14 14 14 13 15 19 21 21 22 23 25 27 29 31 32 33 33 34 35 35 35 36 25 24 19 18 19 18 18 19 21 22 24 25 26 27 28
14 16 17 17 18 19 21 23 24 25 27 29 31 32 33 34 35 34 33 32 29 26 20 16 17 16 18 19 19 20 22 24 25 26 27 27 28 29
16 18 19 20 21 21 23 24 24 25 25 27 28 29 30 31 31 28 25 22 17 16 17 16 16 17 18 20 21 22 25 26 27 27 27 27 28 29
19 20 21 22 24 25 25 27 27 27 28 27 27 26 26 25 23 20 16 15 15 16 19 19 18 20 22 21 22 23 27 29 28 27 28 28 29 31
22 22 23 24 26 27 27 27 27 27 26 26 26 24 24 22 19 16 16 16 17 18 20 23 22 23 26 23 20 24 30 31 30 29 32 32 32 34
24 24 24 25 26 26 26 26 26 26 25 25 24 23 21 20 19 18 18 18 18 21 23 24 26 26 28 27 23 22 28 30 32 33 36 36 36 37
24 24 25 26 25 25 25 25 24 24 24 23 21 21 20 19 20 20 20 22 21 23 26 27 28 29 30 30 31 24 24 30 29 34 37 37 38 38
24 24 25 25 24 24 23 23 23 23 22 22 21 21 20 20 21 22 23 24 24 24 25 29 31 32 33 33 33 30 28 28 29 30 33 35 34 34
23 24 24 23 22 22 22 22 22 22 21 20 20 20 21 22 23 24 26 27 27 27 27 29 31 34 36 36 35 34 33 32 31 34 34 37 34 30
23 23 22 22 22 21 22 23 23 23 22 22 21 22 23 23 24 25 27 29 29 30 29 29 30 34 36 36 32 31 33 31 35 35 35 36 38 31
22 22 22 22 22 23 23 23 24 24 23 23 23 24 25 25 26 27 28 29 30 29 28 28 30 32 34 36 36 28 27 33 35 36 36 37 38 36
22 22 22 23 23 24 24 25 25 25 25 25 25 26 27 28 27 28 29 29 32 32 32 30 30 32 33 35 36 32 28 31 36 39 40 41 40 39
23 23 23 23 24 25 26 27 27 27 27 27 27 27 27 29 29 30 30 31 31 31 30 29 29 32 33 37 37 38 36 33 34 39 41 42 43 44
24 24 25 25 26 26 27 28 28 28 29 29 28 28 29 29 30 31 30 30 30 30 30 31 33 35 37 38 39 39 39 39 40 40 38 37 38 40

GFSNE_700_spd_051.txt.gz
Wind_Speed
37 37 38 39 39 38 38 40 41 45 46 44 42 40 41 40 44 45 43 40 33 28 31 31 36 34 34 36 40 35 35 36 34 35 34 37 41 42
34 33 32 32 34 35 33 32 33 36 41 39 39 41 44 44 44 43 42 41 43 30 36 33 33 32 31 26 29 34 32 33 31 32 35 38 41 42
27 26 29 31 30 31 32 32 32 34 35 35 36 36 39 39 38 39 42 35 27 30 27 31 31 33 32 31 31 33 34 34 35 37 38 38 38 39
23 25 27 26 25 27 29 29 29 33 36 36 35 34 36 34 26 29 34 25 26 30 29 31 29 35 33 32 31 34 36 38 39 38 37 36 36 36
24 24 24 25 24 26 25 25 28 31 34 35 34 31 28 27 26 26 24 26 21 24 23 24 30 33 34 33 35 37 37 35 34 35 36 37 37 38
24 24 24 25 26 25 25 26 28 29 32 22 20 20 17 24 24 24 22 21 22 23 26 29 31 34 35 37 35 33 34 36 36 37 38 38 39 40
24 22 22 24 24 24 23 19 23 25 21 20 22 23 21 25 27 29 25 26 29 30 31 32 32 30 33 35 35 36 37 39 40 39 40 40 38 36
9 9 11 11 9 13 10 10 14 17 18 18 21 23 25 28 27 27 26 27 30 30 31 31 33 33 36 38 38 39 39 38 34 30 28 26 24 22
7 10 10 11 12 12 14 20 22 23 24 24 25 26 27 28 29 30 31 31 32 34 35 33 36 38 40 38 36 31 25 22 19 18 18 18 19 19
12 14 14 15 16 17 19 21 23 24 25 27 28 29 30 31 33 34 35 35 35 36 38 34 34 34 30 24 19 18 18 18 19 20 21 22 22 22
17 18 18 18 19 20 21 23 24 26 26 27 28 29 30 31 32 32 33 34 33 31 31 25 23 19 19 18 17 19 20 21 23 23 24 24 25 25
19 20 21 21 22 22 24 25 26 26 27 28 28 28 28 29 31 30 30 29 28 25 22 16 17 17 18 19 19 20 22 24 25 26 26 27 27 26
22 23 24 24 24 25 25 27 26 26 27 27 27 27 27 28 28 27 26 23 21 20 21 18 17 20 21 21 23 23 24 27 28 29 30 30 29 29
23 24 24 25 25 26 26 26 26 25 25 25 25 26 26 26 26 25 23 22 20 20 22 22 21 23 25 24 24 24 28 30 32 32 33 34 33 33
24 24 25 25 25 26 26 25 24 24 23 24 25 25 25 25 25 23 22 20 20 22 23 25 26 27 28 27 26 24 28 30 33 36 37 38 40 40
25 24 24 24 24 24 24 24 23 23 23 24 25 25 25 24 23 22 22 23 21 24 26 27 28 29 31 31 31 26 26 31 30 34 38 40 41 42
25 25 24 24 24 24 23 23 23 23 23 24 25 25 25 24 23 23 24 24 24 23 25 30 32 33 33 34 34 33 31 29 31 32 36 39 38 38
25 24 24 24 24 23 23 24 24 24 25 26 26 26 26 25 24 25 26 26 26 26 27 29 32 35 35 34 35 36 35 34 31 33 36 38 38 35
25 24 24 24 24 24 24 24 25 26 27 27 28 28 28 27 26 26 27 29 28 29 28 29 31 34 35 34 32 32 34 32 33 34 34 36 39 36
26 25 25 24 25 25 26 26 27 28 29 29 29 29 29 29 28 27 29 30 31 30 29 29 31 35 37 38 36 30 30 33 34 34 34 36 38 39
26 26 25 26 26 26 27 27 27 29 30 31 30 30 30 31 29 29 29 31 33 32 31 28 29 32 34 35 35 32 31 33 34 37 37 39 40 40
27 26 26 26 27 27 27 28 29 31 31 32 31 31 31 31 30 30 31 31 32 32 31 29 29 32 34 38 38 39 37 36 36 37 38 42 45 46
27 28 28 28 28 28 28 28 29 30 32 33 32 31 32 31 32 32 32 32 33 33 32 32 31 33 37 39 42 41 40 38 38 38 37 36 38 41

GFSNE_700_spd_057.txt.gz
Wind_Speed
29 29 29 31 32 33 33 32 30 32 31 26 25 22 21 21 22 24 26 28 31 31 34 34 35 35 36 33 34 34 32 47 38 38 29 30 32 34
25 26 27 28 29 28 26 25 27 27 27 26 24 21 21 23 24 23 24 27 26 28 27 24 26 27 34 34 37 35 32 36 38 30 27 28 31 31
24 24 25 25 24 22 22 25 25 24 24 25 23 22 23 24 22 19 20 19 21 21 19 18 22 24 28 31 34 34 36 35 30 28 28 28 29 30
20 20 20 20 21 22 23 24 25 25 24 23 23 25 26 20 19 20 17 17 19 20 20 16 14 16 21 25 28 30 31 30 30 29 26 26 26 27
17 17 18 19 21 22 23 24 25 24 23 21 17 16 14 15 16 18 16 19 20 20 20 18 16 15 16 17 19 22 25 25 25 26 26 26 28 30
16 17 18 18 18 17 18 19 18 17 15 12 15 18 18 19 19 19 18 19 19 20 20 20 19 20 23 24 26 26 27 27 28 30 31 30 30 30
10 9 8 7 8 10 11 11 10 10 14 17 19 20 20 19 19 20 20 20 21 21 23 23 24 24 24 25 27 29 29 30 31 31 31 33 33 33
5 5 8 8 11 12 13 14 15 16 17 19 20 21 20 20 21 22 22 22 23 21 22 24 25 28 28 29 31 32 33 34 35 35 36 37 38 38
7 9 11 13 14 15 16 17 17 18 19 20 22 23 23 22 22 22 23 23 23 23 21 22 26 27 29 30 32 34 35 36 37 38 39 37 36 36
11 13 14 15 17 18 20 20 20 21 21 22 23 23 23 22 23 23 23 23 23 23 22 20 23 25 27 26 27 28 30 29 26 25 24 22 20 19
12 14 16 18 19 20 21 21 21 22 22 22 22 22 22 22 22 23 23 23 23 24 24 24 23 23 23 21 20 21 21 21 19 19 19 19 19 20
14 14 16 18 19 20 22 22 22 21 22 21 21 22 22 22 22 22 23 24 24 25 25 24 26 24 20 20 18 19 20 20 21 22 22 22 23 24
15 16 18 18 19 19 20 21 21 21 21 21 21 22 22 23 23 23 24 24 25 27 25 25 23 24 21 18 18 22 21 22 23 24 25 26 27 28
15 17 19 20 20 19 19 20 20 20 20 20 21 21 22 23 23 23 24 25 26 27 28 26 23 23 22 20 18 21 23 24 24 26 27 28 29 31
16 17 18 20 21 21 20 20 20 20 20 21 21 22 23 24 24 25 25 25 26 28 28 28 27 25 23 23 22 22 24 24 26 27 29 31 31 33
17 17 18 20 22 22 21 21 20 20 20 21 22 23 24 25 26 26 27 28 27 30 30 29 29 27 25 26 26 22 25 24 25 29 30 29 30 32
18 19 20 22 23 22 22 22 21 21 21 22 23 24 25 26 27 28 28 29 28 27 28 33 35 33 29 28 28 26 25 25 27 27 30 29 27 29
20 20 21 23 24 23 23 23 22 22 23 23 24 25 26 26 27 28 29 30 29 28 26 29 32 35 34 30 32 29 27 27 28 30 30 30 28 28
22 22 23 24 25 24 23 23 24 24 25 25 25 26 27 27 28 28 30 31 29 28 27 28 30 35 36 34 30 30 26 27 28 27 28 28 28 25
24 24 25 25 26 26 25 25 26 26 27 26 26 27 28 28 28 30 31 31 30 29 26 27 30 35 37 37 36 26 27 27 27 27 28 31 31 30
26 26 26 27 28 27 27 26 27 29 29 28 28 28 29 30 30 32 31 31 31 30 27 26 29 34 36 37 36 31 27 25 28 30 31 34 34 34
28 28 31 30 29 29 30 31 31 30 28 28 28 28 30 31 32 33 32 31 31 32 31 30 31 33 34 35 35 34 31 30 29 30 33 35 37 39
30 32 32 32 31 30 31 29 28 28 28 28 28 29 31 32 34 34 32 32 32 31 32 32 32 32 31 32 34 33 32 31 32 32 33 35 37 37

GFSNE_700_spd_060.txt.gz
Wind_Speed
31 29 28 28 29 29 31 32 32 34 30 25 21 19 19 19 17 19 22 23 23 23 23 25 27 30 31 33 36 42 35 31 38 40 42 44 38 39
24 24 25 24 25 26 27 27 25 26 27 24 21 20 19 18 18 20 21 20 23 21 20 20 21 24 24 25 27 32 38 39 45 44 47 37 36 37
24 23 22 22 23 22 22 22 23 24 23 23 22 21 21 21 22 18 17 19 18 17 16 19 20 21 20 22 26 33 35 39 39 43 38 35 36 36
21 20 20 20 20 20 21 23 23 23 24 23 21 21 17 15 12 11 14 15 16 19 19 20 22 21 20 16 18 23 26 29 32 34 33 34 33 31
18 18 18 18 19 20 21 22 22 22 21 19 16 13 13 15 15 16 17 17 18 18 19 21 20 19 19 20 19 18 20 22 24 26 27 30 30 30
15 15 16 16 16 13 10 9 10 10 10 9 9 14 16 17 18 19 19 20 20 19 20 21 22 22 21 20 21 23 25 26 26 27 28 28 29 30
12 10 9 6 6 6 9 10 11 12 12 14 16 18 18 18 19 20 21 22 22 22 22 23 23 23 23 23 24 25 26 27 29 29 29 29 30 31
7 7 7 7 8 9 11 13 15 15 16 17 19 20 20 21 21 22 23 23 23 23 23 23 24 24 23 24 25 27 29 31 32 33 33 34 34 34
8 9 10 10 11 12 14 16 17 18 19 20 21 22 22 23 23 23 23 23 23 21 21 23 23 23 24 24 25 27 29 30 31 32 32 33 35 36
11 11 11 13 14 16 17 18 17 18 20 20 21 22 22 22 23 23 23 23 22 21 20 21 23 24 24 24 26 27 27 28 29 29 28 27 26 26
11 11 14 16 16 17 18 19 19 19 20 20 20 21 21 21 22 22 23 23 22 22 21 22 24 25 25 25 25 26 26 26 25 26 24 22 21 21
11 13 15 16 17 19 19 20 20 20 20 20 20 20 20 20 21 22 23 23 23 23 23 23 26 25 24 25 25 25 25 25 26 25 25 24 23 22
12 14 15 16 16 19 20 20 20 20 20 20 20 20 20 20 21 21 22 23 24 24 25 25 26 27 26 24 25 27 25 26 26 26 26 27 27 26
13 14 16 16 17 18 19 20 20 20 20 20 21 21 21 21 22 23 23 24 26 26 27 27 27 27 27 24 23 24 29 31 29 27 28 29 29 29
15 15 17 18 18 18 20 21 21 21 21 21 21 21 22 22 23 24 24 25 26 28 29 29 29 28 28 27 23 23 28 29 30 30 31 31 31 31
16 17 18 19 19 20 21 22 22 22 22 22 22 22 23 23 24 25 26 26 27 29 30 31 31 30 29 29 27 24 28 29 28 31 33 32 32 32
18 19 19 21 21 22 23 23 22 23 23 24 24 24 24 25 26 26 27 27 28 29 31 33 34 33 31 30 27 26 28 29 29 30 33 33 33 32
20 21 21 23 23 24 24 24 24 24 24 24 25 25 26 26 27 27 28 28 29 30 30 32 33 34 35 32 30 27 29 29 29 31 33 34 31 30
22 23 24 25 25 26 26 26 26 25 25 25 26 26 27 27 28 28 29 29 30 30 30 31 32 34 36 33 30 27 27 30 31 30 33 31 32 26
25 25 26 27 27 27 27 30 28 28 28 28 29 29 28 27 27 28 29 30 31 30 28 29 32 35 35 35 34 26 28 30 32 30 31 32 33 32
27 27 29 29 29 30 33 31 29 30 32 32 30 28 28 28 27 29 30 31 32 31 29 28 31 34 34 34 34 30 28 27 31 33 32 34 32 33
30 30 31 30 31 32 35 30 30 31 32 30 29 29 29 29 29 30 31 31 31 32 31 30 31 33 33 34 34 34 32 29 28 30 32 32 33 34
31 31 32 32 32 34 32 30 29 30 31 30 28 29 30 30 31 31 32 33 33 32 33 32 32 33 33 34 36 36 36 34 33 32 33 34 36 38

GFSNE_700_spd_063.txt.gz
Wind_Speed
32 31 30 29 28 28 27 30 30 29 34 30 25 22 22 21 22 24 21 21 23 22 19 20 19 20 19 21 27 32 34 39 35 31 36 36 43 41
29 27 26 26 26 27 26 29 28 28 28 24 22 21 21 21 20 22 23 23 22 20 17 15 18 16 17 20 23 26 28 31 29 25 29 33 44 37
27 26 26 26 26 25 25 24 23 23 24 23 23 22 21 20 19 19 18 16 15 15 14 16 18 21 19 19 20 21 23 26 30 31 32 39 40 42
27 26 26 24 22 21 21 20 20 22 24 26 24 21 19 16 11 11 12 15 16 16 16 17 18 19 19 18 18 18 18 20 22 24 28 28 33 38
26 23 22 21 20 20 19 18 18 18 18 18 16 15 12 12 14 15 17 18 18 18 18 19 20 20 20 19 19 19 20 21 21 22 24 27 27 28
22 20 19 19 19 18 15 11 9 10 10 9 8 11 13 15 17 18 19 20 20 21 21 22 23 23 22 21 21 21 21 22 23 25 27 28 29 29
19 19 17 15 12 9 9 11 12 13 14 14 15 15 17 18 19 20 21 22 22 23 23 23 24 23 22 23 22 23 23 24 24 25 26 28 30 30
17 14 11 10 10 10 11 14 14 16 17 18 19 20 21 20 21 22 22 23 23 22 23 24 23 23 22 22 22 23 23 24 25 27 28 29 30 31
14 12 11 11 11 12 14 15 18 19 19 20 21 23 24 22 22 22 22 22 22 22 23 24 23 22 22 22 23 24 25 26 27 28 29 29 30 31
13 12 11 11 12 14 16 17 18 19 21 21 21 23 23 23 23 23 22 22 22 22 22 22 22 22 23 23 24 25 26 27 28 30 30 29 29 28
13 12 12 13 14 15 16 18 19 20 21 22 22 23 23 23 22 22 22 22 22 21 22 22 22 23 23 24 25 26 27 28 28 29 29 29 28 28
13 12 13 14 15 16 16 17 19 19 19 20 21 22 22 22 22 22 21 21 21 21 22 22 23 23 24 25 26 27 28 29 29 29 29 29 28 27
13 13 14 15 16 16 16 16 18 18 20 21 21 21 22 22 22 22 21 21 21 22 22 23 24 25 25 26 28 29 29 29 28 29 29 28 28 29
14 15 16 16 17 16 16 17 19 21 21 22 22 22 22 23 22 23 22 22 22 23 23 24 25 26 27 27 28 28 30 31 31 30 30 29 29 29
15 17 18 18 17 17 18 18 20 21 23 22 22 22 23 23 23 24 24 24 24 25 26 27 27 28 28 29 29 27 28 29 31 33 34 33 29 29
18 19 19 19 18 19 19 20 21 22 23 23 23 24 24 24 24 24 25 25 25 26 26 28 29 29 29 30 29 27 28 29 29 32 35 33 32 31
20 21 21 20 20 22 21 22 23 23 23 23 24 25 25 25 25 26 27 27 27 27 28 28 29 31 31 30 28 28 28 28 30 31 34 34 31 32
22 22 23 23 23 23 23 24 25 25 25 25 26 26 26 26 27 27 28 28 27 28 29 30 32 33 32 30 31 28 28 30 31 31 33 35 31 29
24 24 25 26 25 26 27 27 27 27 28 29 28 28 29 30 30 30 30 29 28 28 29 31 32 34 35 34 31 29 28 29 32 32 33 34 35 29
29 30 28 29 29 29 29 29 30 31 31 32 31 31 31 30 29 30 30 30 30 30 29 30 32 34 36 36 35 28 32 32 30 31 33 34 34 33
30 29 29 30 31 32 31 31 31 33 34 33 32 31 31 30 29 29 30 30 31 31 31 31 33 35 36 36 35 32 29 31 32 33 34 37 34 34
29 29 30 31 32 32 33 33 33 34 36 33 32 31 30 30 29 29 30 30 31 33 33 33 33 35 35 36 36 35 33 31 32 34 35 35 37 37
34 33 34 35 35 35 35 34 33 34 33 33 31 31 30 29 29 30 30 31 32 33 34 35 34 35 34 35 37 36 36 34 34 34 32 31 34 35

GFSNE_700_spd_069.txt.gz
Wind_Speed
38 36 35 34 32 31 30 29 28 25 22 24 22 25 26 25 23 21 22 21 21 21 20 20 20 19 17 15 15 15 15 17 19 20 22 26 28 30
36 35 34 33 31 30 28 27 25 24 25 22 30 23 26 23 22 23 22 23 21 20 17 15 15 15 13 13 15 16 17 18 19 20 22 26 30 31
35 33 33 31 30 28 26 25 24 21 22 24 26 25 24 23 22 22 21 18 16 12 11 13 12 13 14 14 14 16 16 16 17 18 19 19 22 26
33 32 31 30 28 27 26 25 23 21 21 22 21 23 23 21 17 16 16 13 15 13 14 15 15 16 16 15 15 16 17 17 17 18 17 15 14 14
33 31 30 28 27 26 25 23 21 20 20 19 19 16 14 12 10 9 10 13 16 16 16 17 17 17 18 18 19 19 19 18 18 18 17 17 18 19
32 30 29 28 27 25 23 21 20 20 18 15 13 12 11 12 13 14 14 16 16 17 17 19 18 18 19 20 20 20 19 19 19 19 18 18 19 19
30 27 26 25 25 22 20 19 17 14 13 13 13 13 13 16 16 17 17 18 18 18 19 18 18 18 18 19 20 19 18 18 17 17 17 18 18 19
29 24 23 22 20 19 17 15 13 14 14 14 14 16 16 18 19 17 19 18 18 18 19 17 17 16 17 18 18 18 17 17 16 17 17 18 19 20
25 23 22 19 18 17 16 15 14 14 14 16 16 16 17 18 18 18 18 17 17 17 18 16 17 17 17 17 17 17 17 17 17 18 18 20 21 21
23 21 21 17 17 16 16 15 15 15 16 16 16 17 17 17 17 18 17 16 16 17 17 17 17 17 17 17 17 18 18 18 19 19 20 21 22 22
18 18 17 16 17 15 15 16 16 16 15 15 16 16 16 16 17 18 17 17 16 18 17 17 17 18 17 18 17 18 19 20 20 21 22 22 23 24
15 16 16 16 16 14 15 17 15 15 15 15 15 16 16 17 18 18 18 17 17 18 18 17 17 18 18 20 20 20 22 22 22 22 23 24 24 25
15 15 16 15 15 15 16 15 15 15 15 15 16 16 17 18 18 18 17 18 18 19 19 18 20 19 20 21 22 22 23 23 24 25 25 25 26 27
16 16 15 15 16 16 16 16 16 16 16 16 15 16 17 19 19 18 18 19 20 20 20 21 22 22 22 23 23 24 25 25 25 27 28 29 29 28
16 16 16 16 17 17 18 17 18 18 18 18 16 16 18 19 20 19 20 21 22 22 22 23 24 25 25 23 22 24 25 27 27 29 30 29 29 29
16 16 17 18 19 19 20 20 19 20 20 19 18 18 20 21 20 20 22 23 24 25 25 25 25 26 26 26 23 23 26 25 28 31 31 29 31 31
18 18 19 20 21 21 22 21 21 22 23 21 21 22 23 23 24 24 24 24 24 27 29 29 29 29 28 26 24 25 25 26 29 30 32 31 29 31
19 19 21 21 22 23 22 25 26 27 29 29 24 26 26 26 26 27 26 26 27 28 28 30 30 28 28 26 26 25 26 27 30 32 33 34 30 29
18 19 23 29 34 37 36 33 36 36 34 31 27 27 28 29 29 30 30 28 27 27 27 28 29 30 28 26 24 27 27 29 31 32 34 35 35 30
24 26 27 29 34 36 32 33 33 31 32 31 29 30 31 32 32 32 32 30 28 27 26 28 29 30 30 30 25 22 31 32 32 32 33 34 34 32
29 28 28 27 27 27 28 28 28 30 32 34 34 35 35 34 34 35 32 31 29 27 26 27 29 31 31 32 31 25 24 31 33 34 34 35 34 32
22 22 23 24 25 27 26 29 30 32 32 33 36 36 34 35 35 32 32 29 29 29 27 27 29 30 31 33 33 31 29 29 31 33 33 36 38 36
24 27 29 29 30 30 30 32 31 31 33 34 33 31 31 30 31 31 30 28 29 28 28 28 29 30 30 32 34 33 32 30 31 32 30 34 36 36

GFSNE_700_spd_072.txt.gz
Wind_Speed
40 38 36 35 35 35 35 33 32 33 30 31 26 24 25 24 25 27 23 20 22 20 19 18 17 17 19 16 15 14 14 15 15 14 17 21 21 24
39 36 35 34 33 33 32 31 30 29 29 29 27 27 20 28 23 25 23 23 21 20 15 13 10 10 12 11 11 12 14 15 16 17 18 22 24 27
36 35 35 34 32 31 30 30 29 27 28 28 29 22 23 26 23 23 24 23 19 16 11 10 10 10 10 10 10 12 14 15 16 18 20 21 23 25
35 34 34 34 31 31 30 29 28 28 28 28 25 24 23 21 22 21 19 17 16 14 13 13 12 13 13 12 13 13 13 14 16 17 18 18 19 20
35 34 33 33 31 30 29 29 28 27 26 25 23 22 21 18 16 13 11 11 13 14 14 15 15 16 16 15 16 16 16 16 17 18 19 18 18 18
34 34 33 33 31 30 29 28 27 25 24 23 22 21 17 15 14 14 14 16 16 16 16 16 17 18 18 17 19 18 18 18 18 18 19 19 19 18
35 34 32 31 29 29 28 26 24 23 23 22 19 17 17 17 17 17 17 18 17 18 17 18 18 19 19 17 18 18 18 18 18 18 18 18 18 18
34 33 31 28 26 26 25 23 21 19 17 16 16 16 17 18 18 19 19 19 19 18 18 18 18 18 18 17 18 18 18 18 17 17 17 17 18 19
32 30 28 26 24 22 21 22 18 16 16 16 17 18 18 19 19 18 20 20 19 19 18 18 18 18 17 18 18 18 18 18 18 18 18 18 19 19
29 25 24 23 22 20 18 19 16 17 16 16 17 17 18 18 18 18 19 19 18 18 18 18 18 18 18 18 18 18 18 18 18 19 19 20 20 21
23 20 19 19 18 17 17 17 15 16 16 16 16 17 17 17 16 16 17 17 17 17 18 18 18 18 18 18 18 19 19 19 19 20 21 21 21 22
19 16 15 16 16 15 15 16 15 16 16 16 16 16 16 15 15 16 17 16 16 18 19 19 19 18 19 19 19 21 21 22 22 22 22 22 22 22
16 14 14 14 13 14 16 16 16 16 15 16 16 16 16 16 16 16 16 16 17 19 20 20 20 20 20 22 22 23 24 24 24 24 25 24 23 23
16 15 16 15 16 16 17 16 16 16 16 17 16 17 17 17 17 17 17 17 18 20 21 21 21 22 22 24 25 26 27 26 26 26 27 25 25 25
16 16 16 17 17 17 17 17 17 17 18 18 18 18 19 19 19 19 19 19 21 22 23 23 24 25 25 25 25 28 29 30 28 29 28 27 27 27
17 16 16 17 17 18 18 18 19 19 19 19 20 19 19 20 20 22 23 21 23 25 25 26 26 26 27 27 26 28 31 30 31 31 29 28 30 30
18 18 18 19 19 19 20 20 20 20 20 20 20 25 25 28 31 23 27 26 26 28 28 28 29 29 29 29 28 28 30 28 31 32 32 30 30 32
17 17 21 22 21 21 21 22 22 25 30 34 37 36 35 36 33 27 29 30 29 30 30 32 31 30 30 27 27 26 28 29 31 33 34 34 29 32
20 23 22 22 23 22 25 30 35 37 36 35 31 31 32 32 32 30 32 32 33 33 32 32 32 32 31 27 27 27 27 31 32 32 35 37 35 29
19 21 24 30 32 30 29 30 33 29 26 27 29 28 27 29 32 33 34 35 36 37 33 33 33 33 32 30 27 23 28 31 33 33 33 37 36 33
28 31 32 30 30 29 28 28 26 26 27 28 28 28 29 31 32 34 33 34 35 35 32 32 34 33 32 31 27 23 27 32 35 35 34 36 35 33
27 23 23 23 24 25 25 25 25 28 29 29 29 31 32 32 31 32 33 32 34 33 32 31 32 33 32 32 29 26 25 30 35 36 35 36 36 36
21 23 25 25 27 28 27 27 27 27 29 30 31 32 33 33 32 31 32 32 31 31 31 30 31 30 30 31 32 30 29 28 32 34 31 35 37 38

GFSNE_700_spd_075.txt.gz
Wind_Speed
34 40 42 40 38 36 36 35 34 35 33 33 30 28 27 22 23 27 24 25 20 20 21 20 19 19 19 17 18 16 15 14 14 14 16 18 21 18
42 44 41 37 37 36 35 35 34 33 33 33 29 27 26 24 25 22 28 23 21 20 21 18 15 13 12 13 13 12 12 14 13 12 14 16 19 24
43 41 38 36 35 35 34 34 32 32 32 32 30 27 28 28 22 20 24 24 22 20 18 14 11 11 11 11 10 10 12 14 15 14 15 17 19 23
43 40 37 36 35 34 33 32 31 31 30 30 30 26 27 26 25 23 23 23 20 17 15 14 13 12 14 14 12 12 13 14 14 14 15 16 17 20
39 38 37 36 35 35 34 32 30 30 30 30 30 27 27 24 22 22 20 18 15 12 13 14 14 15 17 15 14 14 15 16 15 16 17 18 19 21
36 37 36 36 35 35 34 32 30 29 29 29 28 27 25 22 22 19 15 15 14 14 15 16 17 18 19 18 17 17 18 19 18 18 20 20 21 21
35 36 36 35 35 34 33 31 30 28 27 27 26 25 23 21 18 16 17 17 17 17 17 18 19 20 20 19 18 18 18 19 19 19 20 21 21 21
33 34 35 36 35 33 30 28 27 27 25 23 23 22 18 17 16 17 18 18 18 19 18 19 20 20 20 19 18 18 18 19 19 19 20 20 20 20
34 35 35 34 32 30 27 25 24 22 22 18 17 16 16 16 17 18 19 19 19 19 19 18 19 19 19 18 17 18 18 19 19 19 19 20 20 20
33 32 31 29 27 24 22 20 19 17 17 16 16 15 15 17 18 19 18 19 18 19 18 18 18 19 18 18 18 18 19 19 19 20 19 19 20 21
26 27 25 23 21 20 18 16 15 14 14 14 15 16 15 18 17 17 17 18 19 19 18 18 18 18 18 18 19 19 19 19 20 20 20 20 21 22
28 27 22 19 16 15 12 13 13 13 14 13 20 19 17 18 17 18 18 19 19 19 18 18 18 18 18 19 20 20 21 21 21 21 21 21 22 23
25 22 19 16 13 13 12 12 11 12 17 19 17 17 17 17 17 18 19 19 19 18 18 18 19 19 19 20 21 22 23 23 23 24 24 24 24 24
21 19 17 16 14 14 14 15 19 19 18 18 17 17 17 17 18 18 19 19 19 19 19 18 21 21 22 23 23 24 26 26 26 26 26 26 26 27
20 19 17 16 15 14 18 17 16 17 17 17 17 18 18 18 18 18 20 20 19 19 20 22 22 23 23 25 25 27 29 29 29 29 28 28 28 28
20 19 18 17 17 17 18 18 18 18 18 18 18 18 19 19 19 23 29 29 28 25 23 25 25 25 25 27 26 28 32 33 33 33 31 29 29 30
22 20 19 18 17 18 18 18 17 18 19 20 21 22 23 25 32 37 35 31 31 27 26 27 27 27 28 29 29 30 32 33 37 36 33 29 30 31
21 20 20 18 18 19 18 20 23 21 21 23 25 29 34 37 34 31 30 31 31 32 30 31 31 31 31 30 31 30 31 32 36 35 36 32 27 31
20 19 19 20 22 23 25 25 22 23 27 31 30 27 27 26 26 26 26 27 29 31 33 34 34 34 34 32 31 32 31 33 35 36 36 34 29 27
21 21 24 25 26 25 24 27 33 30 27 28 28 26 26 26 25 27 28 27 29 31 31 33 34 36 35 34 32 30 32 33 35 34 33 35 34 30
25 25 25 25 27 31 33 31 28 28 26 26 25 25 26 26 28 29 30 30 30 31 33 34 36 37 35 35 31 30 30 33 33 33 32 34 35 33
30 29 30 32 30 27 25 25 25 24 24 26 27 28 29 29 29 31 32 32 32 32 33 34 34 35 33 32 30 30 29 29 30 32 33 35 36 35
29 29 23 21 22 23 25 26 29 28 26 26 27 29 31 30 31 31 32 32 32 32 32 31 30 31 30 31 31 29 28 27 30 32 32 36 37 37

GFSNE_700_spd_078.txt.gz
Wind_Speed
26 28 31 34 37 37 35 35 36 38 37 35 34 31 29 26 29 27 25 22 30 22 21 21 19 19 20 19 19 18 18 18 17 16 15 16 19 22
32 34 37 36 36 35 33 33 34 35 36 35 33 31 29 25 24 25 26 25 28 25 25 22 20 19 17 14 13 15 17 17 15 15 14 15 18 21
38 39 38 39 38 35 32 32 33 34 34 34 33 30 28 25 24 25 26 26 21 26 26 22 19 17 15 13 10 10 11 12 14 15 15 17 19 23
39 38 39 37 35 35 34 33 32 33 33 33 33 31 27 26 24 24 25 25 26 23 22 19 17 15 14 14 12 11 12 13 14 15 16 18 21 23
37 37 36 35 33 33 33 34 33 32 32 32 32 30 29 28 25 26 23 23 22 19 16 14 15 15 15 14 14 13 14 14 16 15 16 18 19 21
34 34 33 33 33 33 34 33 33 33 32 32 31 30 28 27 24 23 21 21 17 13 13 13 14 16 15 16 16 16 17 17 18 18 18 20 21 21
31 31 32 32 32 32 33 33 33 32 32 31 30 28 27 25 23 21 20 17 16 15 15 15 17 17 17 17 17 17 18 19 19 19 19 20 22 22
29 30 31 32 33 33 33 32 32 30 29 28 26 24 23 24 23 17 17 16 16 17 18 17 18 18 18 18 17 17 17 18 18 18 19 19 20 21
29 30 31 32 33 33 32 30 28 27 25 23 22 21 17 13 16 15 16 17 18 17 18 18 19 18 18 17 16 17 17 18 17 17 19 19 19 20
28 29 29 28 26 28 28 26 24 22 20 18 16 14 15 11 16 17 17 17 18 17 18 18 18 17 17 16 16 17 17 18 18 18 18 19 19 19
28 27 26 27 28 26 23 21 19 17 14 13 13 13 13 12 15 17 17 16 17 17 16 16 17 17 17 16 16 17 18 18 18 18 18 18 18 20
28 28 28 29 25 22 19 16 13 11 10 9 13 10 11 17 16 15 15 14 17 17 16 16 17 17 17 16 17 17 18 18 18 18 19 19 19 21
30 29 27 24 20 17 15 13 12 12 12 10 11 13 14 15 19 15 13 17 16 16 15 16 17 16 15 16 19 20 20 20 20 20 20 20 21 22
31 27 23 21 17 14 14 11 12 12 12 13 14 16 18 15 14 15 17 16 16 15 15 15 16 16 18 19 21 21 21 21 21 23 23 23 24 25
29 27 25 21 17 16 14 15 15 14 15 16 16 14 15 14 19 20 17 17 16 21 28 28 25 25 19 21 21 22 24 24 24 26 26 25 27 28
30 29 24 21 19 18 17 18 18 17 17 15 15 14 15 17 18 19 19 21 28 30 30 28 26 23 21 23 22 24 27 28 28 30 29 28 29 31
31 27 23 22 20 19 19 19 18 16 16 14 15 16 20 23 24 24 25 30 35 33 28 26 27 29 28 28 27 28 30 30 33 34 32 30 31 32
26 22 22 23 21 20 20 19 17 17 18 17 20 19 24 25 30 33 32 29 28 27 25 26 27 29 30 30 30 29 29 31 35 36 37 36 30 32
24 21 22 22 22 22 21 19 19 21 20 21 22 26 32 28 24 24 22 21 21 23 24 24 26 28 29 29 31 30 30 32 34 35 37 37 34 30
24 20 22 23 23 23 23 22 22 23 22 25 31 28 25 23 23 23 22 22 23 24 25 27 28 30 31 32 30 29 33 32 31 32 34 36 34 30
24 26 26 26 25 25 25 26 25 27 31 27 25 24 24 22 24 26 26 25 25 26 27 29 31 32 33 33 31 28 30 31 31 31 31 33 32 29
25 28 30 28 27 28 27 28 32 29 24 23 22 24 26 27 26 26 26 27 27 28 29 31 31 33 33 32 29 27 26 27 28 29 28 30 32 31
22 27 31 32 33 32 30 25 22 22 23 24 26 25 26 27 27 27 29 29 30 31 31 30 30 31 30 30 29 26 25 26 27 27 27 32 34 34

GFSNE_700_spd_081.txt.gz
Wind_Speed
19 22 23 25 27 31 34 34 34 34 31 29 28 28 26 26 27 28 28 28 26 24 23 30 23 23 23 22 20 21 22 21 19 19 19 19 22 28
26 26 27 30 32 34 34 35 34 32 32 31 31 30 30 27 27 27 25 26 25 25 27 29 26 25 23 22 19 18 19 20 21 18 19 17 19 22
30 32 31 33 35 34 35 34 32 31 31 31 31 31 30 30 28 26 24 26 23 26 27 24 29 26 22 19 16 15 14 14 16 17 17 16 17 21
33 32 32 35 35 35 34 32 31 30 30 30 30 31 31 30 28 25 23 22 26 26 25 28 25 22 19 17 16 14 13 12 13 15 17 17 18 21
33 32 33 34 34 32 32 31 31 31 31 31 30 30 30 30 28 26 25 26 25 23 21 21 18 17 15 16 15 15 14 13 14 15 17 19 20 23
32 33 33 32 31 30 30 30 31 31 31 31 31 30 29 28 27 26 25 24 22 21 18 16 14 13 14 16 16 16 16 16 16 17 17 19 20 22
31 30 30 29 28 29 30 31 32 32 32 32 32 30 29 27 26 24 23 22 21 19 17 17 16 16 16 17 17 18 18 19 19 19 19 20 21 22
27 28 27 27 29 30 32 33 33 33 32 31 30 29 26 24 23 22 20 20 17 16 17 17 16 17 17 18 18 18 18 18 19 19 19 19 20 22
25 26 26 28 29 30 31 30 29 29 28 27 25 24 22 20 18 16 14 13 12 15 17 16 17 18 18 18 18 18 18 18 18 18 18 19 20 21
25 25 26 26 27 27 27 29 29 27 23 21 19 18 16 14 13 12 12 12 13 16 17 16 17 18 17 17 17 17 17 17 17 17 17 17 18 19
25 25 26 26 26 28 28 28 26 23 19 16 14 13 11 10 10 11 10 14 13 15 14 14 14 16 16 15 16 16 16 17 16 16 17 17 18 19
25 25 27 27 27 28 27 24 20 17 13 11 9 8 9 9 10 8 9 12 11 10 12 16 15 14 14 15 15 15 15 15 15 16 17 17 18 19
28 28 28 28 27 26 24 19 16 14 13 13 13 13 13 12 12 12 15 15 11 12 15 15 12 13 15 14 13 13 16 17 18 19 20 19 20 21
30 31 29 28 26 24 22 17 16 15 14 14 13 14 14 13 14 13 12 11 12 15 15 13 11 18 22 20 22 24 19 20 22 22 22 22 23 24
32 31 29 27 26 24 21 18 18 18 16 15 16 17 16 16 13 13 14 15 14 13 14 18 23 25 23 23 24 23 22 22 23 24 24 24 25 26
34 32 31 28 26 25 22 21 20 19 17 15 16 17 15 13 11 13 14 15 16 19 25 28 29 26 22 23 24 26 25 25 25 26 26 26 27 28
35 35 35 33 27 24 24 23 23 21 20 18 17 17 15 15 15 17 19 21 22 26 32 31 26 24 24 25 25 27 27 28 30 30 28 28 29 31
32 30 26 25 25 25 25 25 23 22 20 18 17 18 18 18 18 20 24 27 27 24 22 21 20 20 20 22 23 26 27 30 31 31 31 31 29 32
28 25 25 26 26 26 26 25 23 23 21 19 21 21 21 22 24 28 26 22 21 20 21 20 21 22 23 23 25 27 29 31 32 33 33 33 30 30
24 23 24 24 27 25 25 26 25 24 21 21 20 22 23 27 28 25 22 20 20 22 23 23 24 25 25 24 25 26 30 32 32 32 33 34 31 27
20 21 21 26 29 27 28 26 25 23 22 21 24 28 31 26 23 20 21 22 23 23 23 25 26 25 27 27 27 27 30 32 32 32 31 32 30 26
18 19 21 28 32 30 29 29 28 29 25 24 30 31 24 21 21 23 24 23 23 25 26 28 29 30 29 29 28 28 27 29 30 30 29 30 28 24
18 20 24 27 30 34 33 35 34 24 27 30 24 21 21 23 23 23 25 26 27 28 27 29 31 31 30 29 27 25 25 26 26 27 27 30 28 26

GFSNE_700_spd_084.txt.gz
Wind_Speed
19 20 20 20 23 25 27 29 32 34 35 32 29 28 27 27 27 26 27 27 26 30 30 28 26 23 29 25 23 22 22 23 23 22 21 21 24 28
15 18 22 24 27 29 31 32 34 33 37 33 31 29 28 27 27 27 27 26 28 29 28 26 26 28 30 29 27 22 22 21 21 21 21 21 22 24
20 23 25 27 29 30 31 33 33 34 34 33 32 30 30 29 28 28 27 26 27 26 29 25 29 29 25 28 27 23 20 18 18 19 21 20 19 21
25 27 29 30 31 31 32 32 32 32 32 32 31 31 31 31 30 30 28 28 26 27 24 30 31 27 24 24 22 20 17 15 14 14 17 17 17 19
29 29 32 32 31 30 31 31 30 31 31 31 31 30 31 31 31 31 30 28 27 27 27 25 23 24 22 21 18 18 15 14 14 14 15 16 18 19
33 34 34 32 31 30 28 28 28 29 30 31 31 32 32 32 31 30 29 28 27 26 23 22 21 20 16 16 16 17 16 16 15 16 16 17 19 21
37 34 31 30 28 26 25 25 27 30 32 34 34 34 33 32 31 29 28 26 25 23 22 20 20 16 16 16 16 17 16 17 17 17 18 20 20 22
32 30 28 26 25 24 25 27 30 31 32 33 34 33 31 29 27 25 24 22 22 20 19 17 18 17 17 17 17 18 18 19 19 19 20 22 22 23
28 26 24 25 25 25 26 26 28 29 29 30 31 29 26 25 23 21 20 18 15 15 15 14 15 16 17 17 18 18 18 18 19 20 20 21 21 23
26 25 25 26 26 26 26 26 27 28 30 29 29 26 23 20 17 15 13 12 11 12 12 12 16 18 17 17 17 17 17 18 18 18 18 19 20 21
27 26 26 26 26 25 27 27 28 28 27 25 25 22 18 15 14 12 12 11 10 11 12 13 12 15 15 15 16 15 16 16 17 17 16 17 18 19
29 28 27 26 26 27 26 26 27 26 24 23 19 17 15 13 12 10 10 9 8 11 12 9 11 13 13 13 13 15 15 15 15 15 15 17 18 19
30 28 27 26 27 26 26 25 25 24 21 19 16 15 14 14 13 13 12 11 12 13 12 12 13 13 12 11 16 16 16 14 14 15 16 17 19 20
31 29 28 28 27 27 26 24 23 22 20 18 18 17 15 13 13 13 13 16 14 13 13 14 14 14 13 16 20 22 21 26 26 28 26 23 22 24
34 31 31 29 29 29 27 24 23 22 21 19 18 19 18 16 16 14 14 14 13 14 15 14 14 18 21 23 24 25 26 26 25 24 23 24 25 26
35 35 33 32 32 31 28 25 23 23 23 21 21 20 20 17 16 16 17 16 15 15 17 19 20 25 27 29 25 24 24 24 25 26 26 26 27 28
38 36 34 34 34 33 31 30 26 25 25 23 21 20 20 18 18 18 18 17 17 19 22 24 27 30 26 23 22 23 24 25 26 26 27 29 30 31
37 34 35 35 37 33 29 30 28 27 27 25 24 22 21 20 19 20 20 19 20 24 26 25 22 20 19 18 19 22 24 25 26 26 28 28 29 31
35 33 33 31 30 28 27 29 28 28 29 27 24 23 22 22 21 21 23 24 27 25 21 21 21 20 20 21 22 24 26 27 28 29 29 30 30 32
29 30 28 28 27 27 28 29 31 32 27 26 25 25 24 24 22 22 24 29 27 23 22 22 24 24 22 22 23 24 28 29 29 30 31 31 31 31
25 25 25 24 25 27 29 31 33 30 28 28 27 27 26 24 24 27 28 26 23 22 24 25 25 23 24 24 24 26 30 31 31 31 32 32 31 28
22 19 20 22 25 27 29 31 31 29 28 29 28 27 27 28 28 28 25 23 24 25 25 26 26 26 27 26 27 28 29 31 32 30 30 30 30 27
20 18 19 22 25 27 29 32 30 29 29 30 29 31 32 27 27 25 24 25 24 25 27 28 28 28 28 28 28 27 28 29 28 27 28 30 29 27

GFSNE_700_spd_087.txt.gz
Wind_Speed
20 22 26 25 24 20 21 23 25 28 30 30 32 28 29 28 29 30 30 30 30 29 30 29 31 29 28 26 25 29 26 22 21 21 23 22 23 27
24 21 22 21 19 21 23 24 27 29 32 33 32 29 29 29 29 30 30 31 30 30 30 30 32 26 27 24 30 28 29 24 22 20 23 23 24 24
18 19 19 21 22 24 25 26 28 29 32 33 32 29 29 29 29 29 30 30 30 29 29 31 30 29 29 31 28 23 21 22 21 21 19 22 22 22
22 23 25 25 27 27 28 29 29 29 31 31 30 30 30 30 29 29 30 30 30 29 30 28 29 28 28 27 23 22 22 20 18 17 16 18 19 21
27 26 26 26 28 29 30 30 29 29 29 28 30 27 29 30 31 31 31 32 32 30 29 28 26 25 21 24 23 20 18 16 14 14 13 12 14 16
33 32 31 30 31 32 30 30 29 27 27 27 28 28 30 31 33 33 33 32 30 29 27 26 25 23 20 19 17 15 15 15 14 14 13 13 14 16
35 35 34 33 32 31 30 28 26 26 26 28 30 29 29 30 31 31 31 30 29 28 26 24 22 20 19 16 13 13 13 15 14 14 14 14 15 18
36 36 35 33 31 29 28 26 25 25 27 29 29 29 28 28 30 29 28 27 26 25 22 20 20 17 15 14 14 12 14 15 15 16 16 17 18 18
37 35 33 31 30 27 26 25 25 26 28 29 28 29 30 30 29 27 26 24 22 21 20 16 15 12 12 13 12 12 15 16 17 17 17 18 19 20
36 33 31 29 28 26 25 26 26 26 28 29 29 28 29 30 26 24 22 20 16 14 12 11 11 11 11 11 15 16 16 16 16 16 17 17 18 19
33 31 30 28 27 26 27 26 26 26 27 29 29 28 26 24 22 20 17 16 14 13 11 11 11 11 11 11 13 13 13 13 13 14 14 15 15 16
31 31 29 28 27 27 27 27 26 27 27 27 27 26 22 20 17 17 15 14 14 12 11 11 10 10 10 11 11 11 11 12 12 13 13 13 14 16
33 30 29 28 28 28 28 28 27 28 26 26 25 23 19 16 14 14 13 13 12 12 12 10 11 11 10 10 9 8 11 13 13 12 12 15 15 15
33 33 32 31 30 30 30 30 28 27 26 25 24 21 18 17 17 18 17 15 16 15 15 13 13 13 13 11 13 15 16 17 17 19 21 20 23 24
35 35 35 35 33 32 32 32 30 29 26 25 24 22 20 18 17 17 17 17 17 14 12 13 15 17 15 14 18 20 23 23 22 24 24 23 22 21
38 38 38 38 37 35 36 34 31 30 27 25 25 23 21 22 20 19 19 18 17 17 16 16 17 19 20 21 26 29 28 22 20 20 21 21 22 23
36 39 40 41 39 39 38 36 33 33 29 26 26 25 23 23 22 21 19 20 18 17 17 17 19 23 26 29 27 23 20 19 19 20 21 22 23 25
40 42 43 40 39 39 39 37 36 35 35 31 29 27 25 24 23 21 21 21 20 20 19 20 23 24 23 21 18 18 17 17 17 18 19 20 22 25
41 41 40 38 39 39 39 37 37 33 31 33 31 29 28 27 24 23 21 21 21 23 24 25 24 21 20 18 19 21 22 21 21 22 22 22 24 26
41 35 35 36 38 39 36 35 36 32 31 33 30 29 28 27 26 23 22 24 25 25 25 26 23 22 20 21 22 22 23 22 22 23 24 24 25 27
35 32 33 36 35 35 35 35 34 32 33 32 31 32 29 28 27 26 25 25 26 26 27 25 22 22 22 22 21 23 24 25 26 27 27 27 27 26
32 33 30 30 31 31 33 33 33 34 33 33 34 32 28 27 27 27 28 27 28 29 26 24 23 24 23 23 24 25 26 26 29 28 27 27 26 25
33 32 30 27 27 28 30 30 29 30 31 33 30 28 30 30 30 30 29 30 30 26 24 26 25 24 24 25 25 26 27 28 27 26 25 27 27 27

GFSNE_700_spd_090.txt.gz
Wind_Speed
12 18 14 15 20 21 23 19 20 19 21 24 25 24 26 27 28 26 27 26 27 28 29 29 30 30 29 28 28 28 26 25 24 23 22 23 23 23
18 25 22 23 26 28 23 18 20 22 23 26 25 26 26 26 27 26 27 27 27 28 29 29 30 31 31 32 29 27 25 24 21 24 21 22 24 23
23 23 22 19 20 20 20 22 23 25 26 27 27 26 27 26 27 28 27 27 28 28 28 29 30 30 31 30 29 26 23 23 20 20 20 18 21 22
23 22 21 20 19 22 24 25 26 28 30 28 28 28 27 26 26 26 27 27 27 28 29 29 28 29 28 29 26 25 23 21 20 20 17 16 16 21
27 26 25 24 24 25 27 27 27 29 30 28 30 28 27 26 26 27 29 30 30 30 30 30 29 29 27 26 24 21 20 18 17 14 14 14 13 18
29 31 31 29 30 30 29 30 31 30 29 28 28 27 25 27 29 30 30 29 29 29 29 28 26 26 24 21 20 17 15 13 13 12 11 13 12 14
33 33 35 36 35 35 34 34 33 31 30 27 27 27 26 26 28 28 29 29 27 26 26 25 24 22 20 18 17 14 12 11 11 10 10 11 12 12
36 38 38 37 37 38 38 36 34 31 28 27 26 26 25 27 28 29 29 29 27 26 24 23 21 19 16 16 14 12 11 11 10 11 10 13 12 13
38 39 39 39 38 40 38 35 32 29 27 26 26 26 27 28 29 30 29 27 24 24 22 19 17 15 13 12 12 10 10 11 11 11 11 13 15 15
39 40 41 41 40 38 35 32 30 28 26 26 26 27 28 29 29 28 27 24 22 20 17 12 12 10 10 10 10 10 11 11 11 12 14 16 16 16
40 40 40 38 37 35 32 30 29 26 26 26 26 28 27 28 28 26 21 21 17 16 13 11 10 10 10 11 12 12 10 11 11 11 12 14 15 15
38 38 37 34 33 32 30 29 27 25 26 27 27 26 27 27 25 21 18 18 15 13 11 11 10 10 10 11 10 10 9 8 9 10 11 12 12 12
35 35 34 33 32 32 30 28 28 27 27 26 26 26 26 25 22 19 17 15 13 13 10 10 10 10 10 11 11 10 9 9 9 10 12 13 11 11
33 33 33 33 32 32 31 31 30 29 28 27 24 24 23 23 20 18 17 16 16 15 14 12 15 15 12 12 11 12 12 12 12 12 13 16 17 18
34 35 35 34 35 35 33 33 31 30 28 27 24 25 22 23 22 21 19 19 17 15 16 14 13 15 14 15 16 16 15 18 20 22 21 22 24 23
34 35 35 36 37 36 36 35 32 31 29 28 27 26 23 22 24 23 22 21 20 18 17 15 15 15 16 16 19 21 21 24 26 22 19 18 18 18
36 38 40 38 38 37 37 36 33 35 33 31 31 27 25 24 24 25 24 23 22 20 19 18 17 17 17 19 23 25 25 20 17 15 15 16 17 19
43 39 38 39 41 38 36 36 37 37 35 35 33 31 28 28 27 27 26 25 22 20 20 19 19 20 19 22 21 19 16 15 14 14 14 15 17 18
37 40 38 38 39 38 39 38 37 37 36 37 36 35 34 33 31 29 26 26 23 22 22 21 22 23 24 22 18 18 17 18 19 18 18 18 19 20
40 36 39 36 35 33 37 37 35 36 36 35 37 34 30 32 32 30 28 26 24 23 22 22 24 26 25 22 20 20 21 20 19 19 19 20 20 22
37 42 36 34 31 32 34 34 35 34 35 36 36 33 31 32 32 30 30 28 27 24 23 23 27 25 25 22 21 23 22 22 21 22 23 23 23 24
36 39 35 30 29 30 32 34 35 35 35 34 33 32 32 32 31 32 31 30 27 24 25 26 27 27 24 22 24 23 23 23 24 24 23 24 24 25
28 32 32 31 31 28 29 30 32 32 31 30 31 32 32 33 36 32 31 30 28 26 27 27 30 25 23 25 25 24 24 25 24 24 25 25 23 23

GFSNE_700_spd_093.txt.gz
Wind_Speed
40 37 41 41 40 29 18 16 15 23 20 21 21 22 24 25 25 25 24 24 24 24 25 25 25 26 27 28 28 27 26 27 26 22 24 24 23 23
21 25 24 23 18 16 16 22 24 26 24 21 20 21 24 26 26 27 27 25 25 26 26 26 27 27 27 27 28 28 28 27 24 21 24 24 25 24
15 20 19 22 27 30 31 30 29 22 19 24 25 25 26 26 26 27 26 27 25 24 25 26 28 28 29 29 30 30 29 25 23 21 20 22 21 23
26 24 24 26 30 32 27 23 21 23 24 26 28 28 27 27 27 25 26 26 26 27 28 30 31 32 31 30 30 28 25 24 22 21 20 20 19 21
28 31 30 31 31 29 26 24 26 27 27 28 29 30 29 28 27 25 25 26 28 29 29 30 30 30 30 29 29 24 23 20 19 19 17 15 16 17
32 31 32 33 31 31 30 29 28 29 30 31 32 31 30 28 27 26 26 28 28 27 28 28 28 28 27 26 24 23 20 17 16 14 12 12 12 13
34 34 33 35 35 37 35 34 33 33 33 34 34 32 29 28 27 28 28 27 26 27 28 27 27 26 24 22 21 20 16 15 13 11 11 10 11 9
36 37 36 37 37 39 38 40 39 37 36 36 35 32 30 29 29 28 27 27 28 27 26 25 26 24 22 21 19 16 14 13 12 11 11 11 10 9
39 39 39 39 39 40 40 40 39 38 39 37 36 33 29 29 29 26 27 27 27 25 25 24 22 20 17 17 15 13 12 12 11 12 11 12 12 12
41 41 41 40 41 39 39 40 40 40 39 37 34 32 30 28 26 26 27 26 25 24 22 18 16 14 13 12 12 12 11 11 10 10 12 13 13 12
40 41 42 42 41 41 39 40 43 42 38 35 33 32 29 27 25 25 25 25 24 21 18 14 14 13 10 11 12 13 13 12 11 10 10 12 12 13
40 40 40 40 42 42 41 41 40 37 35 34 33 30 27 25 24 25 24 23 20 19 16 13 13 12 11 12 13 11 11 11 11 10 11 13 12 12
39 38 38 38 39 39 37 38 36 37 35 33 31 28 26 24 22 22 22 21 19 18 15 14 14 12 13 13 12 11 11 11 9 9 10 12 12 13
38 35 34 36 37 37 38 36 37 36 34 33 30 28 26 23 22 21 21 20 17 17 16 14 13 14 15 15 12 12 13 14 12 11 10 10 13 15
36 33 34 36 35 37 38 37 37 35 33 32 29 27 26 24 22 21 21 21 20 20 19 19 16 17 16 17 15 15 17 17 16 16 17 18 19 22
39 38 38 37 38 39 39 41 39 35 33 30 30 30 27 24 22 21 21 23 21 19 20 18 19 17 15 17 16 18 19 20 22 23 24 23 20 21
41 40 43 38 38 38 40 42 39 38 35 33 33 30 28 27 25 23 22 24 23 22 23 22 19 19 18 18 17 18 20 25 27 24 19 17 17 18
40 45 42 47 44 39 37 37 36 35 33 34 34 33 31 29 27 26 24 24 26 26 24 21 22 22 20 19 19 19 22 21 18 16 15 15 15 17
31 40 50 42 37 40 44 39 38 37 36 38 38 35 31 31 30 27 27 28 28 27 25 23 23 24 22 22 21 22 21 19 18 17 18 19 20 20
36 36 31 34 32 35 35 37 35 35 33 30 30 34 34 32 30 29 30 30 29 28 27 25 26 25 25 23 23 23 22 21 20 20 20 20 21 21
35 33 36 28 30 33 38 33 32 32 31 31 31 32 33 33 32 29 29 31 32 30 28 26 29 28 24 25 24 25 23 22 22 22 21 22 23 24
34 33 31 27 29 32 29 28 28 31 31 32 32 33 34 35 31 30 30 31 30 29 26 31 32 28 25 23 25 25 24 23 22 23 23 24 24 25
32 32 28 27 29 28 29 29 31 30 31 32 33 33 32 32 30 31 32 33 32 33 30 32 31 27 24 26 26 24 24 24 24 24 24 26 25 26

GFSNE_700_spd_099.txt.gz
Wind_Speed
49 41 49 51 50 50 59 54 46 51 53 50 47 44 39 45 29 25 24 26 28 27 26 26 25 26 24 23 22 22 22 24 24 24 26 27 28 29
45 51 43 49 54 47 41 46 47 55 57 45 41 37 38 31 28 25 25 24 24 25 26 26 26 25 23 23 23 23 25 26 27 27 27 27 28 28
35 43 46 48 44 35 42 45 47 43 43 46 41 36 37 29 25 22 23 22 24 25 26 26 25 24 23 25 25 25 25 26 26 26 26 27 26 26
32 35 37 31 36 34 34 33 35 25 30 26 30 25 30 24 25 26 23 24 25 25 26 26 25 25 25 25 25 25 25 25 25 25 25 24 23 23
25 25 31 31 30 31 27 32 27 26 25 27 27 28 31 31 30 26 24 24 25 26 26 26 25 24 25 25 27 27 25 26 26 26 25 23 20 20
34 34 36 37 36 34 34 33 35 38 36 39 40 38 40 40 31 25 26 26 27 27 27 26 26 25 24 26 28 26 25 26 26 27 25 21 17 16
38 39 40 41 41 39 39 39 37 46 44 43 40 40 36 32 31 27 30 29 27 27 27 26 26 24 26 28 28 25 25 25 25 25 22 18 16 14
42 42 43 42 42 44 44 44 46 49 44 40 41 36 35 33 33 33 32 29 27 25 26 26 25 25 27 29 27 26 25 24 24 23 20 17 15 13
46 45 46 46 46 46 45 47 46 44 43 40 41 42 37 37 37 36 33 30 28 26 25 26 24 26 28 28 25 25 22 22 22 21 18 16 14 12
48 48 49 47 47 49 48 48 48 42 44 41 43 41 41 42 43 34 29 27 29 26 24 24 25 27 28 26 23 21 21 20 19 18 16 15 14 13
50 50 49 49 48 48 49 50 49 46 41 38 46 35 53 53 43 33 26 27 28 26 23 26 25 26 27 24 21 20 19 17 17 16 14 14 13 14
51 49 51 51 49 47 47 47 48 47 40 48 56 49 51 33 33 31 30 28 27 25 25 27 25 25 24 21 20 19 18 16 16 17 16 16 15 14
49 44 45 48 50 47 46 46 46 41 48 44 48 49 39 40 36 31 30 29 27 26 26 26 24 24 23 21 20 20 19 18 18 18 17 16 16 14
47 44 41 39 43 45 43 43 44 49 43 45 47 46 44 41 38 34 32 32 30 28 28 24 23 23 22 22 21 19 19 18 17 16 15 14 13 12
42 42 40 37 37 40 44 47 45 46 45 52 47 43 38 32 36 38 36 34 31 29 27 25 23 23 23 22 20 20 20 19 17 17 17 16 14 13
40 39 38 35 33 35 39 45 49 42 48 46 42 40 36 39 40 38 36 34 31 29 27 25 23 24 24 24 23 21 22 21 19 18 18 18 17 17
36 36 37 35 31 32 37 47 46 44 48 44 44 41 40 41 41 39 37 35 32 29 27 25 25 26 26 26 25 23 22 23 22 21 20 20 20 23
31 32 34 37 30 33 35 41 47 41 45 42 44 40 41 43 41 40 39 36 32 30 28 27 27 29 28 28 27 25 24 24 23 21 20 21 22 24
30 29 31 32 37 33 33 38 43 43 36 37 37 39 45 45 44 43 42 39 36 34 32 29 28 28 29 28 25 25 26 25 24 22 21 22 20 19
28 28 28 29 32 36 28 26 37 32 42 32 36 36 38 41 43 44 44 43 39 37 35 32 28 27 29 30 29 28 28 27 25 23 22 21 20 20
28 27 26 26 29 33 34 29 23 31 31 30 29 30 33 34 38 40 42 43 42 40 38 34 31 34 34 34 31 30 29 28 25 23 24 24 22 23
28 25 24 25 27 28 30 27 34 21 31 36 38 31 33 34 35 34 36 42 42 43 41 40 39 36 35 32 32 30 29 28 26 25 26 26 25 25
28 25 23 23 25 25 26 27 28 29 24 29 29 30 29 31 31 32 32 34 37 38 39 37 36 35 34 33 32 33 31 29 29 30 27 24 24 25

GFSNE_700_spd_102.txt.gz
Wind_Speed
48 50 51 52 50 52 56 53 50 54 56 53 51 52 49 45 45 44 45 39 40 30 23 25 26 26 25 24 24 23 21 22 24 24 24 23 24 25
51 55 57 50 50 52 57 49 49 51 57 58 48 42 40 46 45 52 45 41 33 22 25 25 26 26 24 23 23 22 21 23 24 22 22 23 23 23
44 46 51 52 60 56 56 54 54 51 49 50 50 45 44 46 44 43 43 36 26 24 24 26 25 23 23 23 22 23 22 22 22 21 23 24 22 23
40 42 40 39 43 45 40 43 44 40 42 41 42 39 38 39 39 39 40 29 26 21 19 22 22 22 22 22 22 22 22 22 22 22 24 25 22 22
23 27 24 30 31 37 33 33 40 35 34 39 36 31 29 31 31 33 26 24 23 18 20 20 22 24 23 21 22 22 21 22 22 24 25 25 22 22
32 33 32 30 30 31 34 34 32 34 32 34 29 28 25 25 27 30 30 26 25 21 23 23 23 23 23 22 21 22 23 23 23 24 24 24 21 20
35 36 37 39 40 40 40 39 36 35 36 35 36 38 38 43 43 35 37 36 32 26 25 24 24 24 22 21 22 23 24 23 22 24 24 22 19 17
42 42 42 41 42 43 44 45 44 42 42 42 48 44 46 37 44 43 45 42 32 27 26 26 25 23 23 22 22 22 24 22 22 23 22 20 17 16
47 47 48 48 47 46 46 46 45 46 46 42 45 41 46 39 35 39 37 34 37 31 31 27 24 24 25 24 23 24 22 22 21 22 21 18 15 14
54 53 52 50 49 51 51 50 49 49 48 46 47 45 43 39 38 40 44 45 45 40 32 25 25 25 26 25 24 23 21 21 20 21 18 15 13 14
56 54 54 54 52 51 52 52 52 52 50 50 50 44 40 42 44 43 48 40 39 26 27 23 26 25 27 26 24 23 21 20 20 19 16 14 13 12
57 54 53 54 52 51 54 52 52 51 50 50 48 45 46 39 40 39 40 33 34 24 24 23 27 28 29 26 24 23 21 20 19 18 16 14 14 14
58 55 49 47 47 46 47 52 53 50 49 48 45 49 43 47 45 35 35 31 27 26 25 26 29 30 31 26 23 23 22 20 20 17 16 17 17 16
52 50 46 39 40 43 43 41 43 48 44 43 46 47 47 45 41 35 41 34 26 29 30 32 32 31 30 27 24 23 23 21 19 17 17 17 17 16
42 43 41 38 36 39 40 39 40 42 42 44 48 48 48 53 39 43 39 41 38 36 34 34 31 31 29 25 24 24 23 20 19 18 18 17 16 16
36 37 38 37 34 36 39 39 39 41 42 43 48 42 48 42 54 49 41 44 42 39 37 35 32 31 27 25 25 26 24 22 20 19 19 18 18 17
31 32 33 33 32 33 35 37 34 41 45 45 41 48 43 47 47 35 39 42 39 39 35 34 32 30 28 27 27 26 23 22 22 22 20 20 20 20
29 29 28 28 29 30 31 32 34 35 37 43 36 41 41 48 41 41 41 37 38 36 35 35 33 32 29 27 28 27 26 24 24 24 23 22 21 21
29 27 26 25 25 25 27 31 31 31 34 35 38 37 35 36 39 45 42 40 44 41 40 39 37 34 30 28 29 28 28 27 26 24 25 24 22 21
29 27 25 23 22 23 26 27 38 24 31 29 34 31 36 37 44 41 50 46 45 45 44 42 38 34 29 29 30 28 29 29 25 27 27 24 23 21
29 26 24 23 21 22 23 25 31 32 24 30 32 32 29 32 35 40 40 40 44 46 47 44 39 36 35 33 31 31 31 30 29 30 27 25 25 22
30 28 25 22 20 20 22 22 25 28 29 23 29 31 31 25 26 29 36 37 40 43 44 47 45 40 37 33 31 32 32 31 30 30 29 27 25 24
27 26 24 23 19 19 20 20 23 24 21 19 21 26 27 23 19 23 28 32 33 36 43 44 43 43 37 35 34 33 32 32 31 30 29 29 26 25

GFSNE_700_spd_105.txt.gz
Wind_Speed
37 46 50 48 49 49 50 49 51 51 56 60 57 53 55 52 53 48 47 47 46 39 36 45 38 38 26 26 26 24 23 21 21 20 21 21 21 18
26 38 44 46 51 55 52 49 49 55 58 55 55 49 53 53 51 51 44 41 41 40 44 43 43 34 26 25 25 23 23 22 20 21 20 20 20 18
19 25 45 43 40 52 54 52 56 56 64 57 57 52 51 53 49 48 40 44 42 44 46 44 39 32 24 24 24 22 23 22 21 21 21 20 19 18
23 23 25 30 29 49 50 58 63 59 61 58 59 52 46 43 40 43 36 39 39 46 44 44 37 30 22 25 25 23 23 23 22 21 21 21 20 20
26 23 26 23 24 28 35 37 38 40 41 41 35 39 43 40 37 37 39 40 45 44 42 34 29 23 23 24 24 24 23 22 22 21 21 22 20 19
30 31 31 31 30 29 29 29 34 34 37 33 38 39 36 34 30 29 34 38 39 36 32 30 27 22 23 26 26 25 23 23 21 21 21 22 20 19
38 38 38 38 38 38 39 38 34 33 28 37 32 34 35 31 30 24 28 27 29 28 28 28 25 24 28 27 27 25 24 23 22 23 21 21 19 19
43 44 45 45 46 45 44 43 44 42 42 42 42 40 37 37 34 33 33 39 36 38 33 33 31 27 27 27 25 25 25 23 24 22 21 20 20 18
49 49 50 49 50 52 52 51 49 48 48 47 47 44 45 40 42 43 36 31 41 38 44 41 35 28 28 26 26 27 25 25 23 21 22 20 20 16
55 55 54 54 55 55 57 57 57 55 53 51 51 48 45 46 41 44 41 32 36 40 36 45 38 31 30 27 28 27 26 25 23 21 22 21 18 16
58 57 57 57 55 56 58 59 59 60 58 56 54 54 51 51 45 45 50 47 43 44 40 42 42 37 32 30 29 28 28 25 24 22 22 20 18 17
53 57 59 60 56 52 54 59 61 57 56 58 57 55 54 53 51 48 44 42 42 48 49 53 49 41 38 28 27 29 28 27 25 22 22 19 17 16
48 50 52 53 52 49 42 46 51 55 54 53 56 54 49 51 49 47 52 46 43 46 45 41 38 28 27 28 26 31 29 28 24 23 22 19 18 19
43 44 46 48 47 44 42 38 41 46 49 48 50 52 41 44 52 51 46 47 38 42 38 40 35 30 30 31 35 34 31 27 25 24 23 20 20 21
38 38 38 38 40 38 37 36 41 46 47 47 43 43 49 40 53 42 52 43 48 46 44 42 38 38 36 37 35 31 30 27 26 25 24 23 23 21
32 32 33 34 35 35 34 33 39 41 44 41 42 37 38 42 46 48 48 54 51 50 53 43 35 34 35 34 34 32 29 29 27 27 25 24 23 21
32 32 31 30 31 30 30 30 35 34 36 41 36 41 39 42 39 42 45 45 44 51 53 45 39 38 39 39 37 32 31 30 28 27 26 25 23 22
30 31 30 29 29 27 25 26 29 29 31 37 36 35 39 35 38 37 39 46 45 52 48 41 40 45 43 40 36 34 32 30 29 29 28 27 25 24
29 29 29 28 27 25 24 24 25 25 27 31 35 32 33 35 35 37 38 39 41 40 42 52 52 45 42 39 36 34 31 31 30 30 28 27 27 26
29 29 28 27 25 24 22 22 22 22 24 27 27 30 35 39 32 37 33 37 34 37 35 33 39 40 39 37 36 32 32 32 31 31 29 29 28 27
29 31 29 28 26 23 21 20 20 20 23 28 20 24 27 31 35 31 33 33 31 35 32 34 38 39 41 42 40 37 33 33 33 32 30 30 30 29
28 30 27 26 25 22 21 20 18 18 19 18 25 16 22 26 28 29 33 32 34 34 40 39 42 44 45 41 37 35 33 34 34 33 34 33 32 30
28 29 26 24 23 21 20 18 16 16 17 18 17 28 24 24 29 28 29 30 30 33 35 41 40 44 46 43 41 38 35 34 34 34 33 31 30 30

GFSNE_700_spd_108.txt.gz
Wind_Speed
37 30 40 34 41 41 43 54 55 53 50 52 56 53 51 48 51 59 62 50 51 49 50 48 44 40 37 37 32 34 33 27 26 25 24 23 22 22
29 29 31 29 33 40 43 46 49 50 57 56 55 58 56 59 60 62 53 52 57 56 57 49 43 39 35 40 36 38 29 29 27 26 25 23 22 22
27 30 35 24 24 40 39 37 37 42 51 52 53 53 50 49 52 55 51 46 50 51 48 50 45 41 43 45 39 39 30 31 28 26 25 24 23 23
21 25 27 31 31 30 26 25 41 41 45 40 53 51 55 57 58 61 63 60 49 46 37 42 41 44 45 43 43 40 26 29 30 28 26 26 24 25
28 29 29 27 26 24 26 27 30 30 32 38 38 42 48 56 61 48 47 45 46 41 43 43 49 47 47 44 43 33 32 33 30 28 28 27 26 25
34 33 34 33 33 34 33 33 31 30 32 39 37 37 34 34 29 34 39 40 38 41 38 43 45 45 43 39 34 32 33 33 30 30 28 28 28 25
39 40 40 41 41 41 40 38 40 42 42 40 29 33 34 37 33 30 31 33 35 37 39 40 41 40 39 35 33 35 33 32 31 31 31 29 27 25
44 45 45 46 47 48 48 49 47 46 45 45 46 42 35 34 34 30 33 32 32 31 30 33 38 36 35 36 35 34 33 33 31 31 31 29 27 25
47 48 48 50 51 52 53 54 54 54 53 49 50 49 46 45 32 40 38 35 38 35 29 30 33 33 35 39 36 36 34 31 31 33 31 28 27 24
47 47 48 48 48 52 55 57 58 58 57 56 56 53 52 50 49 43 39 40 42 41 40 35 39 37 42 44 40 37 34 33 33 32 30 28 26 25
47 47 49 50 49 49 51 54 57 60 60 60 60 60 58 53 52 49 51 42 49 51 48 48 42 42 39 44 47 38 35 35 34 33 30 27 26 26
44 45 46 48 51 53 55 56 57 52 55 58 61 62 61 60 55 58 47 51 56 44 48 48 44 44 48 50 48 44 42 35 34 34 29 27 26 25
41 41 43 45 47 50 51 55 57 57 55 52 55 59 61 62 59 57 59 57 57 50 58 52 50 47 48 52 45 48 44 37 36 33 30 29 28 26
38 38 37 36 37 40 44 46 47 49 52 51 48 50 58 57 57 56 54 62 62 58 49 46 51 52 50 55 51 49 48 39 35 33 32 30 29 27
35 35 34 34 34 34 36 38 40 41 41 44 47 48 49 53 53 51 48 51 58 47 54 59 47 46 48 54 41 36 42 41 34 34 31 30 29 29
32 31 31 31 30 32 34 35 36 39 39 41 44 47 47 48 48 47 48 44 53 58 54 47 53 43 47 44 38 40 43 42 36 32 32 32 31 31
32 30 30 30 30 31 31 32 32 34 35 35 35 36 41 39 41 43 46 51 47 47 57 54 53 53 48 47 48 49 45 41 38 35 34 32 33 31
32 32 30 31 31 30 30 29 28 30 31 31 30 32 27 33 32 45 41 43 51 46 42 49 49 56 60 55 57 52 46 42 38 36 35 35 33 32
32 32 33 32 30 29 29 28 27 27 27 26 26 23 26 32 36 34 33 46 36 44 42 46 48 52 54 49 47 48 45 41 37 37 35 35 34 32
31 31 31 31 30 29 28 27 26 25 23 22 21 25 17 26 36 30 31 29 34 37 33 34 39 40 46 46 49 43 42 40 37 36 37 37 35 35
30 30 30 29 29 27 27 26 25 24 21 19 19 18 19 20 24 29 29 32 32 35 36 32 36 36 36 38 38 42 43 41 39 37 36 37 37 36
30 30 30 29 27 26 26 24 24 22 20 18 20 19 24 14 16 19 27 33 28 32 29 31 32 31 34 37 40 45 41 38 39 39 40 38 35 33
27 27 26 25 24 23 23 22 22 19 18 16 18 15 17 21 22 17 19 27 29 32 29 29 28 29 32 33 38 43 41 38 37 39 40 41 38 36

GFSNE_700_spd_111.txt.gz
Wind_Speed
37 38 40 33 39 34 39 40 43 49 49 45 43 52 51 48 54 51 51 49 48 50 57 58 58 48 44 39 37 39 34 37 37 30 29 29 28 28
39 39 39 45 41 39 36 38 35 44 43 44 50 45 50 48 51 59 52 49 49 51 63 55 48 44 47 49 46 44 43 37 34 32 31 30 30 29
38 39 34 41 45 47 39 33 29 44 37 41 44 43 42 41 43 55 61 56 60 61 63 58 50 45 44 42 39 38 39 41 38 34 35 33 31 31
34 36 30 38 40 35 37 44 37 30 35 39 32 36 39 40 43 49 49 51 61 57 51 52 48 52 48 45 45 46 39 43 39 39 37 33 32 31
33 32 31 33 32 32 33 34 34 33 31 29 32 36 34 35 45 39 35 41 51 52 58 54 49 45 42 43 40 39 46 41 43 42 34 35 33 32
37 39 39 40 39 40 39 37 37 35 29 30 31 31 32 33 32 33 36 37 34 38 40 39 40 41 41 41 45 46 42 42 43 38 37 35 34 32
40 42 43 44 45 46 46 45 43 43 40 41 41 42 40 35 34 33 34 36 35 33 35 35 39 40 40 40 42 40 38 41 37 38 35 34 34 32
42 43 44 45 47 48 50 50 50 50 49 48 47 48 49 47 41 37 36 35 33 29 26 31 33 37 38 37 34 34 35 35 38 38 35 35 34 33
42 43 43 43 44 47 50 51 52 55 56 55 55 53 53 50 47 47 45 38 33 31 32 32 26 28 29 30 32 32 35 37 40 36 35 34 33 32
41 41 42 41 42 44 44 46 49 52 55 56 59 59 58 55 53 52 52 48 49 39 37 38 33 32 26 28 30 32 36 41 41 38 36 35 34 32
42 43 43 42 42 43 46 47 46 46 46 50 56 60 61 60 57 53 54 56 49 51 40 42 41 41 40 36 36 37 38 43 44 40 38 37 35 34
42 43 44 46 47 48 49 50 52 51 50 49 48 50 55 57 58 58 56 56 58 58 53 50 45 44 49 49 41 41 40 41 48 45 41 38 37 35
41 41 42 42 43 44 46 48 49 51 54 55 53 51 49 51 55 55 57 57 58 63 61 52 52 46 50 57 51 46 49 41 46 48 44 40 39 36
40 39 40 39 40 40 40 41 43 46 46 48 50 51 51 49 48 51 53 58 59 59 60 53 54 56 46 48 52 49 44 47 52 48 49 44 40 38
39 39 38 36 34 33 33 35 36 39 41 44 44 44 46 50 47 46 50 55 60 60 57 54 62 54 57 46 45 52 51 46 44 50 52 49 41 39
39 38 36 34 32 32 31 28 30 33 36 39 40 40 38 39 44 46 44 50 55 61 61 57 60 59 57 58 49 48 49 50 49 54 50 48 44 41
36 37 36 34 33 32 30 31 30 30 32 34 36 37 36 36 36 38 39 41 46 52 57 46 57 49 59 55 60 48 44 47 50 57 52 51 46 40
34 34 33 33 33 32 31 30 30 30 30 31 33 34 33 32 32 29 27 33 32 42 49 53 52 51 56 55 55 54 54 42 43 44 49 46 41 40
35 33 33 33 33 32 30 29 29 29 28 28 29 28 27 27 26 26 31 30 31 34 41 55 43 54 50 56 49 56 52 46 48 43 46 42 36 36
34 34 32 31 31 30 29 28 28 28 27 27 26 25 24 23 26 26 23 25 32 28 37 39 48 37 36 40 52 51 54 54 56 49 47 40 40 38
32 33 32 32 31 30 29 29 29 27 26 25 23 21 21 19 25 24 17 21 30 26 27 30 31 31 30 29 36 44 52 53 52 49 42 42 38 39
30 30 30 29 27 26 25 26 26 25 23 22 21 20 20 20 19 24 13 15 24 22 21 20 32 25 27 25 27 33 38 37 41 50 47 40 38 40
28 27 26 25 24 23 24 24 24 22 20 19 18 17 18 19 18 21 16 14 17 18 19 13 21 24 24 26 26 29 31 33 39 46 46 45 45 40

GFSNE_700_spd_114.txt.gz
Wind_Speed
39 37 38 36 38 38 40 42 36 48 42 41 39 38 40 44 43 41 50 51 57 48 43 42 43 41 44 49 47 52 49 42 33 43 30 31 32 30
36 37 35 38 40 39 46 42 44 39 44 39 41 34 39 44 42 38 38 49 48 55 49 45 44 48 50 50 57 46 40 40 39 42 35 34 33 32
39 39 39 36 39 38 39 40 43 48 42 43 39 36 35 32 29 34 41 43 42 51 55 48 43 45 49 54 53 42 38 41 38 35 35 39 34 34
40 38 41 42 41 41 46 43 41 37 42 45 49 38 37 36 37 36 37 34 33 41 48 54 53 56 60 59 54 44 42 38 41 41 34 39 38 36
33 32 32 31 32 31 35 30 32 36 34 37 42 44 37 23 22 28 26 30 33 36 35 42 55 54 54 51 49 48 48 43 41 41 44 38 42 37
36 35 37 37 38 41 42 42 43 42 41 41 38 37 40 33 33 31 35 31 36 38 33 38 39 44 54 50 51 49 47 43 41 40 38 42 36 38
37 37 38 40 42 43 45 45 45 46 45 46 46 44 40 38 38 35 35 35 35 36 35 33 35 33 32 38 43 43 42 42 40 40 42 38 36 39
34 34 36 38 40 41 42 43 45 47 49 50 50 49 48 47 46 48 46 44 41 34 35 35 36 32 31 35 36 35 34 34 36 44 36 33 36 37
34 35 35 36 37 41 38 40 41 44 47 49 50 51 52 52 53 51 50 52 52 48 41 39 37 33 28 25 25 27 31 35 34 30 33 38 36 36
33 33 34 34 34 37 37 38 38 38 41 45 49 50 51 52 52 54 55 56 55 51 46 47 38 37 32 25 21 25 29 30 27 30 32 34 37 36
34 36 38 39 37 36 39 40 41 39 40 40 42 45 47 49 50 53 53 55 58 57 53 51 51 45 38 35 29 27 29 29 32 33 36 37 39 36
37 36 37 38 41 41 43 44 44 42 42 40 39 41 43 43 44 47 49 54 55 57 54 54 54 48 49 37 38 34 33 33 34 36 37 40 42 37
35 35 37 38 39 41 41 42 44 44 44 43 43 41 39 40 42 43 46 50 51 56 56 54 57 56 51 51 44 38 37 41 40 39 41 41 43 42
39 38 38 38 38 38 39 39 39 40 42 42 41 39 40 39 39 40 41 44 49 54 53 56 59 58 56 58 55 47 44 49 49 44 43 41 39 42
39 40 39 37 36 35 34 35 36 37 38 39 39 39 38 38 39 40 40 40 44 49 53 53 56 58 58 59 60 54 51 44 49 51 47 50 43 42
38 38 37 37 35 34 32 31 33 33 34 35 37 36 35 36 35 35 38 40 41 42 46 51 54 55 57 57 59 58 50 48 43 48 44 42 43 43
37 36 35 34 33 32 32 33 30 29 32 33 34 34 33 33 32 32 33 34 38 38 37 43 48 52 55 57 55 60 56 51 44 41 41 44 43 37
34 34 32 31 31 31 30 30 28 29 29 31 31 32 32 32 30 29 30 30 32 32 31 31 38 44 50 57 58 55 63 56 47 48 41 45 51 44
32 31 32 31 31 30 30 29 28 28 28 29 30 30 31 30 28 28 28 27 23 30 27 28 28 37 46 54 57 61 56 61 47 47 53 40 38 42
31 32 33 33 32 30 29 28 28 27 27 28 27 28 28 28 27 27 24 25 28 27 27 27 33 30 39 43 56 42 55 44 57 50 48 49 39 36
30 30 31 30 28 27 26 26 25 25 24 25 25 25 26 26 25 24 21 21 23 25 24 26 29 26 35 42 43 50 49 44 48 49 47 47 43 45
29 29 29 27 26 25 24 24 24 24 24 24 24 24 25 24 22 20 19 21 24 19 17 24 24 24 30 35 39 35 42 46 39 42 44 44 47 50
28 28 27 26 25 25 24 23 23 22 21 21 22 22 21 19 17 16 20 22 28 21 16 16 17 22 30 25 24 33 29 28 29 36 42 43 43 45

GFSNE_700_spd_117.txt.gz
Wind_Speed
34 33 35 34 38 37 37 34 38 42 42 43 37 36 32 36 38 43 42 42 44 45 45 49 49 44 46 44 42 43 45 41 40 42 43 48 28 31
32 34 33 36 40 32 36 43 39 44 45 45 44 42 37 40 42 38 39 40 41 39 41 48 52 56 53 43 41 44 44 41 42 45 52 42 36 32
28 32 32 40 33 39 41 43 48 42 48 44 39 39 44 47 40 40 44 37 42 42 39 37 43 57 59 48 43 45 48 43 44 47 32 36 34 34
34 37 35 36 41 44 50 44 53 44 54 49 47 44 44 38 46 43 38 37 35 39 37 38 37 45 56 48 58 47 42 44 44 51 41 36 35 31
29 33 32 31 36 36 36 39 39 38 49 43 38 44 35 38 32 38 45 45 45 34 41 37 37 39 42 45 55 55 52 56 54 57 43 41 40 39
33 34 35 37 41 40 40 39 40 40 38 36 43 37 41 39 40 36 38 31 28 37 35 35 40 35 38 42 48 48 57 59 53 49 47 45 45 39
30 31 33 35 36 38 37 36 39 41 42 44 46 47 46 44 46 42 41 36 34 32 33 35 37 35 36 37 39 40 40 51 57 49 47 47 45 40
30 31 32 33 36 36 37 37 39 40 41 42 44 46 46 47 48 47 46 43 44 44 38 36 34 34 33 36 40 38 35 34 32 41 44 45 40 43
30 30 30 31 33 35 34 34 36 37 40 41 41 42 44 44 47 46 49 50 50 48 47 50 44 41 37 36 34 36 33 37 33 30 33 35 42 48
30 31 31 30 32 33 33 33 34 34 37 39 40 41 43 42 44 46 47 50 52 52 51 56 51 52 45 41 37 35 31 30 29 28 29 38 46 43
27 29 30 29 30 31 33 32 32 31 35 37 38 40 40 41 43 47 45 48 50 50 48 57 56 53 52 45 42 39 33 27 27 32 38 41 40 35
25 27 29 31 32 34 37 39 39 36 37 36 34 34 35 36 38 42 46 49 50 51 45 49 53 55 58 53 48 45 41 33 32 35 39 34 32 34
32 32 33 34 36 36 36 38 38 39 41 41 39 36 35 35 36 38 41 44 48 51 48 48 49 49 55 59 55 51 48 44 39 37 36 35 36 35
33 35 36 36 36 36 36 37 37 38 38 38 38 36 35 34 34 34 36 39 43 48 45 46 53 50 51 53 57 55 54 50 48 45 43 41 40 38
37 39 37 35 34 34 34 35 37 37 37 38 38 36 34 33 33 34 34 35 39 41 41 41 46 48 51 53 53 56 56 57 57 50 50 48 46 43
37 37 34 31 29 31 32 32 32 34 35 36 36 35 34 33 33 33 34 34 36 34 36 38 39 45 49 52 53 54 56 60 59 57 51 51 52 53
40 36 32 29 28 28 29 30 30 31 32 33 34 34 32 31 31 31 33 33 35 33 31 32 35 39 46 48 53 55 55 59 59 60 52 49 46 53
36 32 30 29 30 30 30 30 30 29 29 31 31 31 31 30 31 30 31 31 32 31 31 29 31 35 40 46 48 51 56 55 58 54 57 45 43 45
32 30 30 30 30 31 31 29 29 29 30 30 30 30 31 31 31 29 30 30 30 29 29 28 27 31 34 39 40 45 50 53 54 49 50 58 47 40
30 29 29 29 29 29 29 29 28 28 27 26 26 27 29 30 30 29 28 28 27 26 24 26 28 27 34 32 31 35 44 49 53 50 44 54 46 51
28 28 28 28 27 27 27 26 26 25 24 24 25 26 26 28 27 27 27 24 24 20 25 29 28 25 29 30 34 33 38 42 49 55 48 42 51 42
27 27 27 27 27 27 26 25 23 21 21 22 23 24 24 25 26 24 23 22 19 21 25 27 26 25 29 34 36 33 35 35 43 46 49 45 44 48
27 27 25 25 26 25 25 24 23 21 21 22 23 23 23 23 22 22 20 18 17 22 25 25 22 22 29 35 33 34 34 37 35 47 41 48 45 48

GFSNE_700_spd_123.txt.gz
Wind_Speed
34 46 24 22 20 20 24 33 37 38 41 40 40 41 36 32 40 36 41 42 42 40 44 45 44 43 47 47 49 46 47 45 52 51 45 45 40 41
18 24 18 20 23 26 30 35 37 38 36 38 37 39 39 39 39 44 40 41 43 42 38 43 46 44 42 45 44 46 49 46 49 46 53 50 44 41
22 22 24 25 27 27 28 31 33 36 39 42 43 44 40 39 43 44 44 44 50 45 45 48 47 46 45 46 47 45 50 48 50 46 46 51 47 42
21 22 25 26 27 29 31 34 38 38 41 42 40 40 40 45 50 46 47 42 46 44 46 46 50 48 49 49 47 46 47 47 49 56 49 50 48 50
25 26 28 30 30 31 32 34 36 38 38 39 40 40 39 40 42 45 52 50 51 49 47 46 48 49 47 54 50 47 50 53 51 49 46 54 52 50
26 26 27 27 28 29 30 31 34 36 38 40 42 43 43 43 42 41 40 42 39 48 52 54 55 52 48 45 46 47 46 44 50 48 45 44 53 52
27 27 28 29 29 29 30 32 33 34 36 37 39 41 40 41 43 43 44 42 43 44 44 45 51 46 43 45 43 45 47 43 49 44 42 43 49 53
26 28 29 30 30 31 32 33 35 36 36 37 38 39 39 39 40 40 42 42 43 43 48 45 48 45 45 41 40 37 44 44 52 49 46 47 46 48
30 30 31 31 32 32 32 33 33 34 36 38 37 37 38 38 39 39 39 42 41 37 45 48 46 46 46 42 44 44 45 40 43 43 48 48 49 49
33 32 32 31 31 32 33 33 33 32 34 36 37 35 37 35 38 39 38 41 40 38 40 47 42 46 45 47 48 46 43 41 34 42 41 38 41 42
32 31 29 30 30 30 30 30 31 30 33 36 37 37 36 37 38 41 39 42 42 39 36 47 43 46 44 41 46 51 51 48 42 34 37 30 30 31
28 28 29 27 28 31 33 33 33 32 34 36 38 37 36 37 38 41 43 44 44 45 34 45 43 46 47 40 42 45 48 50 51 45 39 35 34 34
26 27 27 30 32 34 35 36 37 38 38 38 39 39 34 33 34 36 39 42 45 46 37 44 44 40 46 48 40 39 44 44 47 47 48 42 37 35
26 28 31 33 34 34 35 37 38 39 38 37 37 36 35 34 32 32 33 36 38 42 37 37 46 42 44 46 47 38 40 42 45 46 49 48 43 42
31 33 32 32 33 34 34 33 33 33 34 34 34 34 36 36 35 34 34 34 37 36 35 34 39 40 42 45 45 41 39 40 43 46 47 52 51 48
32 31 30 30 29 29 29 29 30 31 32 34 35 36 37 37 37 36 37 35 37 31 31 32 34 39 39 41 42 42 35 38 39 43 45 51 53 51
34 31 30 27 27 27 26 27 28 30 32 34 34 34 35 35 35 35 36 35 36 34 29 29 32 35 37 38 39 37 34 36 35 39 45 49 55 57
33 32 30 29 28 27 26 25 25 26 29 30 30 31 31 32 32 30 31 31 31 31 29 27 30 32 33 34 34 33 34 33 33 37 43 50 54 61
31 31 29 28 28 28 27 25 23 23 24 25 27 27 28 28 28 26 25 27 27 27 27 26 27 29 31 31 26 30 32 31 30 35 39 46 52 56
30 30 29 29 28 28 27 26 25 24 24 25 24 25 25 25 24 24 24 26 26 25 25 25 25 27 29 28 27 24 26 26 29 31 35 40 46 52
25 25 26 27 27 28 27 27 27 26 26 25 24 24 24 24 23 23 23 23 25 24 25 23 22 25 27 26 25 19 24 28 28 28 30 36 42 46
24 25 26 27 28 28 27 26 26 25 25 26 25 25 25 25 24 23 23 23 23 23 23 21 19 22 24 26 29 30 30 28 28 30 31 35 38 42
24 25 26 26 26 25 25 25 25 24 24 25 24 23 23 22 22 22 21 20 20 20 19 16 15 18 22 28 31 31 29 26 24 28 30 32 33 33

GFSNE_700_spd_126.txt.gz
Wind_Speed
16 23 25 26 31 32 41 46 40 26 21 22 27 31 35 39 41 42 40 36 40 40 38 38 39 41 39 41 45 45 46 44 42 40 41 45 47 48
13 15 18 22 24 24 23 23 23 27 26 23 27 29 32 35 39 37 38 34 33 39 36 40 41 42 43 46 46 46 44 46 48 46 43 41 41 42
19 20 19 22 24 26 26 28 28 30 30 30 30 31 35 39 41 41 40 43 47 46 44 44 46 45 45 43 42 46 45 44 48 46 44 43 42 44
19 20 21 23 24 25 26 27 30 31 32 33 32 34 36 39 40 39 40 41 43 44 45 48 48 45 48 48 51 47 47 45 47 46 47 44 44 48
21 21 21 22 22 23 24 27 29 31 33 34 33 36 37 37 36 38 40 41 42 43 45 49 50 47 47 43 49 53 52 48 49 47 46 44 45 47
24 22 21 23 24 24 25 27 28 29 31 33 33 34 35 37 38 39 40 42 41 42 42 41 43 48 51 50 50 51 51 49 48 50 50 46 47 48
24 26 28 27 25 26 28 28 28 28 30 32 34 34 34 35 36 37 37 38 37 40 42 41 43 44 42 45 54 57 55 51 49 47 49 49 53 52
25 26 27 28 30 31 29 29 30 31 31 32 33 34 34 34 35 36 36 37 35 37 41 37 42 43 45 46 47 51 52 50 48 48 48 53 50 45
26 26 27 29 29 30 31 31 31 31 31 33 34 33 35 35 36 35 36 37 37 33 40 38 40 41 42 44 48 49 47 46 49 45 40 46 47 50
28 28 28 27 27 27 28 28 29 29 30 32 34 33 35 35 36 37 35 37 36 33 37 42 37 40 40 40 44 48 46 48 44 47 42 38 39 46
29 28 27 25 26 27 27 28 29 30 33 35 36 37 36 36 38 40 39 40 39 36 35 43 39 41 38 36 39 42 44 46 51 50 43 40 40 47
28 25 24 25 25 28 31 33 33 33 34 35 36 37 38 37 38 41 43 42 43 42 33 43 40 42 45 36 37 39 41 44 45 49 49 38 41 38
23 22 24 26 28 31 33 34 35 36 36 35 34 32 31 32 33 36 38 39 41 42 34 40 43 38 43 46 39 35 38 39 42 43 45 49 43 45
22 24 25 29 31 32 33 33 34 33 32 31 30 29 30 29 30 32 33 36 38 39 35 35 42 40 43 43 44 37 36 36 39 40 42 43 47 46
24 26 29 31 31 31 33 33 33 33 31 30 29 28 29 30 30 30 32 35 37 36 36 34 38 39 41 43 41 38 37 32 35 37 41 42 44 44
26 28 30 30 29 30 28 29 31 31 30 29 28 28 27 27 27 29 31 32 34 31 31 31 34 38 39 38 40 35 31 35 32 34 39 41 43 45
27 29 29 28 29 28 28 28 28 28 29 29 30 29 29 29 28 28 30 30 31 29 27 27 29 33 36 36 36 32 28 31 29 31 36 40 43 46
28 30 28 27 28 28 28 28 27 28 29 29 29 30 30 29 28 27 28 28 27 25 24 25 27 29 31 30 32 30 27 26 25 28 34 36 40 44
28 28 26 26 26 27 28 28 27 27 28 28 29 29 30 28 27 26 26 26 26 25 25 24 26 28 29 27 25 28 26 21 23 24 26 33 35 40
28 27 25 25 27 28 28 28 27 27 28 28 28 29 30 31 28 26 25 25 26 25 25 24 24 26 29 28 23 21 23 21 23 24 24 26 32 35
25 25 25 26 26 27 28 28 29 29 30 29 27 27 26 28 26 26 25 25 26 25 24 22 22 26 28 29 26 21 18 17 21 22 23 27 27 32
24 24 23 24 25 26 27 27 28 28 28 28 28 28 27 27 27 26 24 23 22 24 23 21 21 24 25 25 19 16 17 19 22 24 26 30 30 30
23 22 22 23 24 24 25 26 27 26 26 27 27 26 27 27 26 26 25 24 24 23 23 21 21 23 22 22 23 23 26 26 24 24 23 28 32 31

GFSNE_700_spd_132.txt.gz
Wind_Speed
23 21 21 21 24 24 22 21 20 21 26 28 30 31 35 36 36 32 49 43 37 49 42 33 41 43 37 39 40 43 40 41 44 43 45 39 38 34
22 22 21 21 22 23 23 23 23 23 25 25 27 28 26 27 28 35 46 45 42 33 31 34 29 33 35 33 37 38 39 40 45 45 46 41 39 40
20 20 20 20 20 21 22 23 24 25 25 26 27 27 27 29 31 32 32 30 34 35 37 32 29 32 28 33 40 41 42 42 40 42 46 43 42 42
22 21 20 20 21 21 21 22 22 23 24 25 26 28 30 31 31 31 32 33 35 34 34 36 39 35 37 39 43 43 42 45 45 45 46 47 47 47
23 24 25 24 23 23 24 24 24 25 26 26 26 26 26 26 27 30 32 33 34 35 35 35 38 40 42 43 44 48 50 50 48 48 49 50 47 47
23 23 23 25 26 27 27 28 27 27 28 29 29 29 29 29 29 28 28 31 34 34 36 38 40 42 44 42 44 46 48 50 54 54 51 53 55 51
23 24 24 25 26 25 26 28 29 29 28 27 28 29 31 31 30 30 32 30 31 33 35 36 37 39 41 41 42 43 47 49 50 49 51 54 54 54
25 25 26 27 27 27 27 27 27 28 28 25 24 25 25 26 28 29 29 30 33 33 35 33 37 37 38 40 41 42 44 46 47 48 48 49 55 55
27 26 26 27 27 27 27 25 25 24 25 24 24 24 25 27 28 28 30 30 30 32 34 32 34 35 37 38 40 40 41 42 44 45 47 48 48 49
27 28 27 27 27 26 23 20 20 21 24 27 29 31 32 31 33 34 34 34 34 34 36 37 36 36 34 36 38 38 40 41 42 43 44 46 48 49
28 27 27 27 27 23 19 19 20 23 27 30 31 31 32 34 34 35 34 34 33 33 32 36 38 39 38 36 37 39 39 40 41 41 42 44 46 47
27 28 28 26 22 21 21 22 24 25 26 27 29 31 32 33 33 34 33 32 32 32 29 32 33 33 37 35 35 35 36 39 40 41 41 42 43 44
26 27 27 25 22 22 23 25 28 27 25 27 27 29 31 31 31 31 31 32 33 32 30 34 33 32 35 37 32 31 34 36 39 40 42 43 44 45
27 27 26 23 22 22 23 25 26 25 26 27 28 29 29 29 30 31 32 32 32 32 31 33 36 35 36 36 34 26 29 32 37 39 42 43 44 45
27 27 26 23 22 22 23 25 25 25 25 26 26 26 28 28 29 30 32 33 33 32 32 33 35 34 36 37 36 26 26 28 31 35 40 42 43 45
27 26 26 23 22 23 24 24 24 24 26 26 26 26 26 27 28 30 31 31 33 31 32 33 34 36 36 34 35 28 24 29 26 31 35 37 40 42
27 26 23 22 22 23 24 24 24 26 27 27 27 27 28 29 28 29 29 29 31 31 31 32 33 33 34 34 33 30 27 27 27 31 33 33 34 38
26 25 22 21 21 22 23 23 24 26 27 27 26 27 28 28 29 28 29 29 28 27 28 29 31 32 32 32 32 30 30 29 27 29 34 35 31 34
26 24 20 20 22 22 23 22 22 24 25 26 25 26 27 28 29 28 28 27 27 27 25 26 27 30 33 32 29 29 29 29 31 30 32 36 32 31
26 22 19 20 21 22 22 22 22 24 24 24 25 26 28 29 29 29 28 28 27 26 25 24 25 27 30 29 27 21 23 26 30 32 31 33 31 30
25 20 20 20 21 22 22 22 22 23 24 25 26 28 28 29 27 28 29 29 28 27 27 24 26 29 29 30 30 26 23 25 29 30 31 32 28 28
23 19 19 20 21 22 22 22 22 23 25 27 27 27 27 28 28 28 28 29 29 29 28 28 28 29 30 31 31 29 26 24 27 28 27 27 26 25
22 19 19 19 21 21 22 22 21 23 27 28 27 26 26 26 27 28 28 28 29 29 30 29 30 30 28 29 31 30 29 26 28 30 29 27 30 29

GFSNE_700_spd_135.txt.gz
Wind_Speed
26 26 26 25 24 25 26 28 28 24 25 29 29 29 27 27 26 26 28 31 32 32 35 37 45 44 45 52 47 44 46 43 44 44 41 40 34 34
25 24 24 25 23 23 23 24 26 28 27 29 25 25 27 26 26 28 26 24 32 35 32 35 38 38 42 39 43 47 41 42 38 38 37 38 38 35
24 24 24 24 23 23 23 23 24 25 27 28 29 28 28 26 27 28 28 29 29 30 30 34 36 37 38 46 39 44 33 36 36 34 37 41 41 41
25 26 27 28 28 25 25 25 25 25 27 28 28 28 29 29 28 27 28 33 32 31 31 31 32 35 40 40 41 35 35 34 36 39 40 40 39 39
27 28 28 26 26 27 27 26 27 27 28 28 29 30 31 30 29 28 30 29 32 32 32 33 34 34 35 37 40 48 52 35 37 40 42 42 42 43
29 28 27 26 27 28 29 29 29 28 29 30 29 29 30 31 32 31 29 30 32 33 33 31 32 33 35 37 36 35 39 45 43 43 48 48 46 45
27 26 28 26 28 29 28 29 29 29 29 29 30 29 29 28 29 30 31 31 31 32 34 34 33 33 35 36 38 40 40 43 44 44 47 48 49 51
25 26 28 26 28 29 29 30 29 28 26 26 25 24 24 25 26 27 29 30 31 32 30 32 35 34 36 37 37 38 40 42 42 45 44 45 47 48
25 26 27 27 28 28 29 30 29 26 23 21 21 23 24 27 28 29 30 31 31 32 35 34 35 37 35 36 38 40 40 40 42 44 43 44 45 47
26 26 27 28 28 28 28 28 24 22 21 23 25 26 28 29 30 31 31 32 32 32 33 35 35 36 38 37 38 40 39 40 41 42 43 42 43 45
24 26 30 29 28 29 27 24 22 21 23 25 27 27 28 29 31 33 33 35 34 31 30 32 32 33 31 30 35 38 40 40 42 43 42 42 42 43
27 27 30 29 28 30 26 23 21 23 24 26 26 26 28 29 30 32 33 33 34 34 31 32 31 33 35 31 29 29 32 37 42 43 44 44 44 44
30 25 29 31 30 29 26 23 23 24 25 26 25 25 27 28 28 29 30 31 31 32 32 36 35 33 34 36 33 29 30 31 37 42 46 46 46 47
31 25 27 31 29 27 25 23 24 25 26 25 24 26 27 27 28 29 30 32 33 33 31 33 34 35 36 35 33 30 30 30 32 35 41 46 47 47
30 24 27 30 29 27 24 23 24 25 26 25 25 26 27 27 29 30 31 32 34 32 33 33 34 34 37 37 37 30 30 28 28 31 35 38 42 47
29 24 26 29 29 26 22 22 24 26 26 25 25 26 25 26 27 29 30 31 34 32 32 33 33 34 36 36 37 32 28 29 27 27 30 31 34 37
28 22 26 27 27 25 22 23 24 26 25 25 26 27 26 26 25 26 28 30 31 31 30 29 31 32 33 34 34 30 28 28 26 27 29 27 27 31
26 22 25 26 25 22 21 22 25 25 25 25 26 27 27 27 27 28 30 31 31 29 29 28 30 31 32 31 28 29 28 28 27 28 29 32 27 26
25 22 25 25 23 21 21 22 23 24 25 26 26 27 28 27 29 31 32 32 31 31 30 29 29 30 32 29 23 23 24 22 25 27 27 30 31 26
25 22 24 23 22 20 21 22 21 22 24 25 26 27 28 30 30 31 31 32 31 30 29 28 29 32 34 33 30 24 24 27 28 29 28 28 30 28
25 22 23 22 21 20 21 20 21 22 23 24 25 27 29 32 31 30 30 30 31 31 31 28 29 31 32 34 33 28 25 27 30 32 31 33 31 28
25 21 23 22 20 20 20 20 20 21 23 24 25 28 29 30 30 30 31 32 31 32 32 31 30 31 33 35 34 32 28 26 28 33 34 33 33 30
24 21 23 21 20 20 19 19 20 20 22 22 24 26 28 28 29 31 31 31 32 33 33 33 33 33 33 34 35 33 31 30 32 33 33 33 33 33

GFSNE_700_spd_138.txt.gz
Wind_Speed
29 28 27 26 27 27 27 28 29 26 24 25 22 20 22 23 23 24 25 25 24 24 27 29 27 30 39 36 36 36 31 38 40 43 40 41 35 30
27 26 25 26 27 28 29 28 28 29 27 28 26 25 23 22 22 23 25 25 24 24 22 26 28 31 33 35 37 36 45 39 42 38 47 48 45 38
27 26 25 25 27 28 29 28 27 29 29 28 29 27 27 26 24 23 23 25 24 24 23 24 26 29 34 33 35 33 40 39 40 39 35 47 38 41
27 26 27 28 28 27 26 28 26 28 29 28 29 29 28 29 28 26 25 25 26 25 23 23 26 28 30 33 33 36 37 38 41 45 47 45 39 37
27 26 27 30 29 26 27 28 29 28 30 29 28 28 27 28 27 27 27 26 27 27 26 26 25 25 28 32 34 34 36 38 40 41 43 38 44 38
28 28 29 29 30 27 28 30 30 29 29 30 30 29 30 28 27 25 25 25 23 23 26 27 29 29 30 31 32 33 36 38 36 33 42 45 48 39
29 29 30 29 29 29 28 30 30 30 29 30 29 27 26 26 25 23 22 22 23 24 22 23 25 29 31 32 34 35 36 37 38 38 36 36 45 51
29 29 29 29 28 29 29 30 30 30 29 28 26 23 21 20 20 22 23 22 22 26 25 25 27 27 28 32 34 35 38 38 39 37 40 39 38 41
30 29 28 28 27 29 30 31 30 30 29 24 21 19 20 22 23 24 24 23 23 25 28 26 28 28 30 31 35 37 37 38 41 39 39 39 40 43
30 29 27 25 28 32 30 31 30 29 26 23 22 21 23 24 25 24 25 26 26 27 32 30 30 30 29 29 31 33 35 38 41 42 42 41 40 40
30 29 26 27 31 32 30 29 29 28 25 23 23 23 23 23 24 25 26 26 23 23 25 29 29 29 29 29 31 31 33 34 35 40 43 44 42 41
30 29 28 30 33 32 30 29 29 27 25 22 23 23 22 22 23 25 24 24 24 25 24 27 28 30 29 26 27 29 30 32 33 34 37 41 43 44
31 30 30 31 37 30 28 28 29 28 23 23 23 22 22 22 23 23 24 25 26 27 28 32 32 32 34 33 29 27 28 28 30 32 35 38 39 41
31 32 31 35 32 29 26 29 28 27 24 24 23 22 22 22 23 23 24 25 26 28 28 32 34 34 36 36 34 30 29 28 30 30 32 34 37 39
34 34 34 35 30 27 26 29 28 24 24 23 23 22 22 23 23 23 23 25 25 25 29 31 33 35 37 37 35 33 30 28 29 31 31 32 34 36
38 38 33 29 29 24 27 27 26 23 22 23 23 22 22 23 24 25 25 25 27 25 27 29 31 33 34 35 35 31 29 31 25 27 31 30 29 32
34 27 27 27 25 24 26 27 23 22 22 23 23 22 22 24 23 24 26 28 30 31 29 28 30 32 32 33 31 27 27 25 23 26 30 29 27 29
29 25 25 23 23 24 25 24 22 21 22 22 22 22 23 24 24 23 27 30 32 31 30 30 30 32 32 29 29 30 26 24 22 23 25 26 23 24
23 24 23 22 22 23 24 23 21 21 21 22 22 23 24 24 26 26 30 33 33 33 29 29 29 32 35 35 27 28 31 27 27 26 25 26 24 20
24 23 21 23 21 22 22 21 20 19 20 21 22 23 23 25 25 28 31 33 33 31 29 28 29 31 34 34 37 27 29 31 33 32 27 29 27 26
23 22 20 22 22 21 22 20 19 18 19 20 21 21 22 25 26 28 29 30 33 33 32 29 29 32 34 36 35 29 26 28 31 34 33 33 29 29
22 21 22 21 22 22 21 19 18 18 19 20 20 20 22 23 24 26 29 31 29 31 32 30 29 32 33 35 37 36 30 28 30 32 32 33 35 36
22 22 23 22 22 22 20 18 18 17 18 18 18 19 21 20 24 27 28 28 29 30 30 30 30 31 33 34 36 36 33 30 30 31 30 32 36 38